Wetterdaten: Samstag, 17.09.2022
Datum Zeit Temp. Aussen Temp. o. S. Temp +5cm Feuchte Auss Luftdruck Regen Sonnenschein Regendauer Solar Windben Empfang
17.09.2022 00:00 10,4 C 10,0 C 6,7 C 90 % 1013,0 hPa 0,0 l/m 0 min 0 min 0 W/m 6,4 km/h (2 Bft) 100,00 %
17.09.2022 00:02 10,4 C 10,0 C 6,7 C 90 % 1013,0 hPa 0,0 l/m 0 min 0 min 0 W/m 12,9 km/h (3 Bft) 100,00 %
17.09.2022 00:04 10,4 C 10,0 C 6,7 C 90 % 1013,0 hPa 0,0 l/m 0 min 0 min 0 W/m 12,9 km/h (3 Bft) 100,00 %
17.09.2022 00:08 10,4 C 10,0 C 6,7 C 90 % 1013,0 hPa 0,0 l/m 0 min 0 min 0 W/m 9,7 km/h (2 Bft) 98,81 %
17.09.2022 00:10 10,4 C 10,0 C 6,7 C 90 % 1013,0 hPa 0,0 l/m 0 min 0 min 0 W/m 16,1 km/h (3 Bft) 100,00 %
17.09.2022 00:12 10,4 C 10,0 C 6,7 C 90 % 1013,0 hPa 0,0 l/m 0 min 0 min 0 W/m 9,7 km/h (2 Bft) 97,87 %
17.09.2022 00:14 10,4 C 10,0 C 6,7 C 90 % 1012,9 hPa 0,0 l/m 0 min 0 min 0 W/m 9,7 km/h (2 Bft) 100,00 %
17.09.2022 00:16 10,4 C 10,0 C 6,7 C 90 % 1013,0 hPa 0,0 l/m 0 min 0 min 0 W/m 12,9 km/h (3 Bft) 100,00 %
17.09.2022 00:18 10,4 C 10,0 C 6,7 C 90 % 1013,0 hPa 0,0 l/m 0 min 0 min 0 W/m 6,4 km/h (2 Bft) 100,00 %
17.09.2022 00:20 10,4 C 10,0 C 6,7 C 90 % 1012,9 hPa 0,0 l/m 0 min 0 min 0 W/m 12,9 km/h (3 Bft) 100,00 %
17.09.2022 00:22 10,4 C 10,0 C 6,7 C 90 % 1012,9 hPa 0,0 l/m 0 min 0 min 0 W/m 12,9 km/h (3 Bft) 100,00 %
17.09.2022 00:24 10,4 C 10,0 C 6,7 C 90 % 1013,0 hPa 0,0 l/m 0 min 0 min 0 W/m 6,4 km/h (2 Bft) 100,00 %
17.09.2022 00:26 10,4 C 10,0 C 6,7 C 90 % 1012,9 hPa 0,0 l/m 0 min 0 min 0 W/m 16,1 km/h (3 Bft) 97,87 %
17.09.2022 00:28 10,4 C 10,0 C 6,7 C 90 % 1012,9 hPa 0,0 l/m 0 min 0 min 0 W/m 12,9 km/h (3 Bft) 100,00 %
17.09.2022 00:30 10,4 C 10,0 C 6,7 C 90 % 1012,9 hPa 0,0 l/m 0 min 0 min 0 W/m 19,3 km/h (3 Bft) 97,87 %
17.09.2022 00:32 10,4 C 10,0 C 6,7 C 90 % 1012,9 hPa 0,0 l/m 0 min 0 min 0 W/m 12,9 km/h (3 Bft) 100,00 %
17.09.2022 00:34 10,4 C 10,0 C 6,7 C 90 % 1013,0 hPa 0,0 l/m 0 min 0 min 0 W/m 16,1 km/h (3 Bft) 100,00 %
17.09.2022 00:36 10,4 C 10,0 C 6,7 C 90 % 1012,9 hPa 0,0 l/m 0 min 0 min 0 W/m 6,4 km/h (2 Bft) 100,00 %
17.09.2022 00:38 10,4 C 10,0 C 6,7 C 90 % 1012,9 hPa 0,0 l/m 0 min 0 min 0 W/m 16,1 km/h (3 Bft) 97,87 %
17.09.2022 00:40 10,4 C 10,0 C 6,7 C 90 % 1012,9 hPa 0,0 l/m 0 min 0 min 0 W/m 9,7 km/h (2 Bft) 95,74 %
17.09.2022 00:42 10,4 C 10,0 C 6,7 C 91 % 1013,0 hPa 0,0 l/m 0 min 0 min 0 W/m 19,3 km/h (3 Bft) 100,00 %
17.09.2022 00:44 10,4 C 10,0 C 6,7 C 91 % 1013,0 hPa 0,0 l/m 0 min 0 min 0 W/m 12,9 km/h (3 Bft) 100,00 %
17.09.2022 00:46 10,4 C 10,0 C 6,7 C 91 % 1013,0 hPa 0,0 l/m 0 min 0 min 0 W/m 6,4 km/h (2 Bft) 95,74 %
17.09.2022 00:48 10,4 C 10,0 C 6,7 C 91 % 1013,0 hPa 0,0 l/m 0 min 0 min 0 W/m 6,4 km/h (2 Bft) 95,74 %
17.09.2022 00:50 10,4 C 10,0 C 6,7 C 91 % 1013,0 hPa 0,0 l/m 0 min 0 min 0 W/m 6,4 km/h (2 Bft) 100,00 %
17.09.2022 00:52 10,4 C 10,0 C 6,7 C 91 % 1012,9 hPa 0,0 l/m 0 min 0 min 0 W/m 6,4 km/h (2 Bft) 97,83 %
17.09.2022 00:54 10,4 C 10,0 C 6,7 C 91 % 1012,9 hPa 0,0 l/m 0 min 0 min 0 W/m 9,7 km/h (2 Bft) 97,87 %
17.09.2022 00:56 10,4 C 10,0 C 6,7 C 91 % 1012,9 hPa 0,0 l/m 0 min 0 min 0 W/m 12,9 km/h (3 Bft) 93,62 %
17.09.2022 00:58 10,4 C 10,0 C 6,7 C 91 % 1013,0 hPa 0,0 l/m 0 min 0 min 0 W/m 6,4 km/h (2 Bft) 97,87 %
17.09.2022 01:00 10,4 C 10,0 C 6,7 C 91 % 1013,0 hPa 0,0 l/m 0 min 0 min 0 W/m 9,7 km/h (2 Bft) 97,87 %
17.09.2022 01:02 10,4 C 10,0 C 6,7 C 91 % 1013,0 hPa 0,0 l/m 0 min 0 min 0 W/m 12,9 km/h (3 Bft) 97,87 %
17.09.2022 01:04 10,4 C 10,0 C 6,7 C 91 % 1013,0 hPa 0,0 l/m 0 min 0 min 0 W/m 12,9 km/h (3 Bft) 97,83 %
17.09.2022 01:06 10,4 C 10,0 C 6,7 C 91 % 1013,0 hPa 0,0 l/m 0 min 0 min 0 W/m 12,9 km/h (3 Bft) 97,87 %
17.09.2022 01:08 10,4 C 10,0 C 6,7 C 91 % 1013,0 hPa 0,0 l/m 0 min 0 min 0 W/m 6,4 km/h (2 Bft) 97,87 %
17.09.2022 01:10 10,4 C 10,0 C 6,7 C 91 % 1013,0 hPa 0,0 l/m 0 min 0 min 0 W/m 12,9 km/h (3 Bft) 97,87 %
17.09.2022 01:12 10,4 C 10,0 C 6,7 C 91 % 1013,0 hPa 0,0 l/m 0 min 0 min 0 W/m 12,9 km/h (3 Bft) 95,74 %
17.09.2022 01:14 10,4 C 10,0 C 6,7 C 91 % 1013,1 hPa 0,0 l/m 0 min 0 min 0 W/m 12,9 km/h (3 Bft) 95,74 %
17.09.2022 01:16 10,4 C 10,0 C 6,7 C 91 % 1013,0 hPa 0,0 l/m 0 min 0 min 0 W/m 9,7 km/h (2 Bft) 95,65 %
17.09.2022 01:18 10,4 C 10,0 C 6,7 C 91 % 1013,0 hPa 0,0 l/m 0 min 0 min 0 W/m 12,9 km/h (3 Bft) 93,62 %
17.09.2022 01:20 10,4 C 10,0 C 6,7 C 91 % 1013,0 hPa 0,0 l/m 0 min 0 min 0 W/m 16,1 km/h (3 Bft) 95,74 %
17.09.2022 01:22 10,4 C 10,0 C 6,7 C 91 % 1013,1 hPa 0,0 l/m 0 min 0 min 0 W/m 12,9 km/h (3 Bft) 95,74 %
17.09.2022 01:24 10,4 C 10,0 C 6,7 C 91 % 1013,1 hPa 0,0 l/m 0 min 0 min 0 W/m 12,9 km/h (3 Bft) 63,83 %
17.09.2022 01:26 10,3 C 10,0 C 6,7 C 91 % 1013,1 hPa 0,0 l/m 0 min 0 min 0 W/m 12,9 km/h (3 Bft) 83,72 %
17.09.2022 01:28 10,3 C 10,0 C 6,7 C 91 % 1013,0 hPa 0,0 l/m 0 min 0 min 0 W/m 9,7 km/h (2 Bft) 95,65 %
17.09.2022 01:30 10,4 C 10,0 C 6,7 C 91 % 1013,1 hPa 0,0 l/m 0 min 0 min 0 W/m 12,9 km/h (3 Bft) 93,62 %
17.09.2022 01:32 10,4 C 10,0 C 6,7 C 91 % 1013,0 hPa 0,0 l/m 0 min 0 min 0 W/m 16,1 km/h (3 Bft) 97,87 %
17.09.2022 01:34 10,4 C 10,0 C 6,7 C 91 % 1013,0 hPa 0,0 l/m 0 min 0 min 0 W/m 6,4 km/h (2 Bft) 95,74 %
17.09.2022 01:36 10,4 C 10,0 C 6,7 C 91 % 1013,0 hPa 0,0 l/m 0 min 0 min 0 W/m 9,7 km/h (2 Bft) 95,74 %
17.09.2022 01:38 10,4 C 10,0 C 6,7 C 91 % 1013,0 hPa 0,0 l/m 0 min 0 min 0 W/m 6,4 km/h (2 Bft) 95,74 %
17.09.2022 01:40 10,4 C 10,0 C 7,2 C 91 % 1013,0 hPa 0,0 l/m 0 min 0 min 0 W/m 19,3 km/h (3 Bft) 97,83 %
17.09.2022 01:42 10,4 C 10,0 C 6,7 C 91 % 1012,9 hPa 0,0 l/m 0 min 0 min 0 W/m 9,7 km/h (2 Bft) 97,87 %
17.09.2022 01:44 10,4 C 10,0 C 6,7 C 91 % 1012,9 hPa 0,0 l/m 0 min 0 min 0 W/m 12,9 km/h (3 Bft) 100,00 %
17.09.2022 01:46 10,4 C 10,0 C 6,7 C 91 % 1013,0 hPa 0,0 l/m 0 min 0 min 0 W/m 16,1 km/h (3 Bft) 100,00 %
17.09.2022 01:48 10,4 C 10,0 C 6,7 C 92 % 1012,9 hPa 0,0 l/m 0 min 0 min 0 W/m 6,4 km/h (2 Bft) 100,00 %
17.09.2022 01:50 10,4 C 10,0 C 6,7 C 92 % 1012,9 hPa 0,0 l/m 0 min 0 min 0 W/m 9,7 km/h (2 Bft) 100,00 %
17.09.2022 01:52 10,4 C 10,0 C 6,7 C 92 % 1012,9 hPa 0,0 l/m 0 min 0 min 0 W/m 16,1 km/h (3 Bft) 97,83 %
17.09.2022 01:54 10,4 C 10,0 C 6,7 C 92 % 1012,9 hPa 0,0 l/m 0 min 0 min 0 W/m 22,5 km/h (4 Bft) 97,87 %
17.09.2022 01:56 10,4 C 10,0 C 6,7 C 92 % 1012,9 hPa 0,0 l/m 0 min 0 min 0 W/m 6,4 km/h (2 Bft) 97,87 %
17.09.2022 01:58 10,4 C 10,0 C 6,7 C 92 % 1012,9 hPa 0,0 l/m 0 min 0 min 0 W/m 16,1 km/h (3 Bft) 97,87 %
17.09.2022 02:00 10,4 C 10,0 C 6,7 C 92 % 1012,9 hPa 0,0 l/m 0 min 0 min 0 W/m 16,1 km/h (3 Bft) 97,87 %
17.09.2022 02:02 10,4 C 10,0 C 6,7 C 92 % 1013,0 hPa 0,0 l/m 0 min 0 min 0 W/m 12,9 km/h (3 Bft) 97,87 %
17.09.2022 02:04 10,4 C 10,0 C 6,7 C 92 % 1012,9 hPa 0,0 l/m 0 min 0 min 0 W/m 12,9 km/h (3 Bft) 95,65 %
17.09.2022 02:06 10,4 C 10,0 C 6,7 C 92 % 1013,0 hPa 0,0 l/m 0 min 0 min 0 W/m 16,1 km/h (3 Bft) 97,87 %
17.09.2022 02:08 10,4 C 10,0 C 6,7 C 92 % 1012,9 hPa 0,0 l/m 0 min 0 min 0 W/m 12,9 km/h (3 Bft) 97,87 %
17.09.2022 02:10 10,4 C 10,0 C 6,7 C 92 % 1013,0 hPa 0,0 l/m 0 min 0 min 0 W/m 6,4 km/h (2 Bft) 97,87 %
17.09.2022 02:17 10,3 C 10,0 C 6,7 C 92 % 1013,0 hPa 0,0 l/m 0 min 0 min 0 W/m 6,4 km/h (2 Bft) 95,92 %
17.09.2022 02:18 10,3 C 9,4 C 6,7 C 92 % 1013,0 hPa 0,0 l/m 0 min 0 min 0 W/m 16,1 km/h (3 Bft) 100,00 %
17.09.2022 02:20 10,3 C 9,4 C 6,7 C 92 % 1012,9 hPa 0,0 l/m 0 min 0 min 0 W/m 6,4 km/h (2 Bft) 95,74 %
17.09.2022 02:22 10,3 C 9,4 C 6,7 C 92 % 1012,9 hPa 0,0 l/m 0 min 0 min 0 W/m 6,4 km/h (2 Bft) 93,62 %
17.09.2022 02:26 10,3 C 9,4 C 6,7 C 92 % 1013,0 hPa 0,0 l/m 0 min 0 min 0 W/m 9,7 km/h (2 Bft) 96,81 %
17.09.2022 02:28 10,3 C 9,4 C 6,7 C 92 % 1013,0 hPa 0,0 l/m 0 min 0 min 0 W/m 9,7 km/h (2 Bft) 96,81 %
17.09.2022 02:30 10,3 C 9,4 C 6,7 C 92 % 1013,0 hPa 0,0 l/m 0 min 0 min 0 W/m 9,7 km/h (2 Bft) 98,29 %
17.09.2022 02:33 10,3 C 9,4 C 6,7 C 93 % 1013,0 hPa 0,0 l/m 0 min 0 min 0 W/m 19,3 km/h (3 Bft) 98,29 %
17.09.2022 02:36 10,3 C 9,4 C 6,7 C 93 % 1013,0 hPa 0,0 l/m 0 min 0 min 0 W/m 19,3 km/h (3 Bft) 96,95 %
17.09.2022 02:39 10,2 C 9,4 C 6,7 C 93 % 1013,0 hPa 0,0 l/m 0 min 0 min 0 W/m 12,9 km/h (3 Bft) 96,95 %
17.09.2022 02:40 10,2 C 9,4 C 6,7 C 93 % 1013,0 hPa 0,0 l/m 0 min 0 min 0 W/m 12,9 km/h (3 Bft) 97,59 %
17.09.2022 02:44 10,2 C 9,4 C 6,7 C 93 % 1013,1 hPa 0,0 l/m 0 min 0 min 0 W/m 16,1 km/h (3 Bft) 96,84 %
17.09.2022 02:48 10,2 C 9,4 C 6,7 C 93 % 1013,1 hPa 0,0 l/m 0 min 0 min 0 W/m 9,7 km/h (2 Bft) 97,85 %
17.09.2022 02:52 10,2 C 9,4 C 6,7 C 93 % 1013,1 hPa 0,0 l/m 0 min 0 min 0 W/m 9,7 km/h (2 Bft) 98,89 %
17.09.2022 02:56 10,2 C 9,4 C 6,7 C 93 % 1013,1 hPa 0,0 l/m 0 min 0 min 0 W/m 19,3 km/h (3 Bft) 100,00 %
17.09.2022 02:59 10,2 C 9,4 C 6,7 C 93 % 1013,2 hPa 0,0 l/m 0 min 0 min 0 W/m 9,7 km/h (2 Bft) 100,00 %
17.09.2022 03:00 10,2 C 9,4 C 6,7 C 93 % 1013,2 hPa 0,0 l/m 0 min 0 min 0 W/m 19,3 km/h (3 Bft) 97,70 %
17.09.2022 03:04 10,2 C 9,4 C 6,7 C 93 % 1013,2 hPa 0,0 l/m 0 min 0 min 0 W/m 16,1 km/h (3 Bft) 96,94 %
17.09.2022 03:08 10,2 C 9,4 C 6,7 C 93 % 1013,3 hPa 0,0 l/m 0 min 0 min 0 W/m 19,3 km/h (3 Bft) 97,70 %
17.09.2022 03:12 10,2 C 9,4 C 6,7 C 94 % 1013,3 hPa 0,0 l/m 0 min 0 min 0 W/m 12,9 km/h (3 Bft) 97,80 %
17.09.2022 03:16 10,2 C 9,4 C 6,7 C 94 % 1013,3 hPa 0,0 l/m 0 min 0 min 0 W/m 6,4 km/h (2 Bft) 98,11 %
17.09.2022 03:20 10,2 C 9,4 C 6,7 C 94 % 1013,3 hPa 0,0 l/m 0 min 0 min 0 W/m 12,9 km/h (3 Bft) 96,51 %
17.09.2022 03:24 10,2 C 9,4 C 6,7 C 94 % 1013,3 hPa 0,0 l/m 0 min 0 min 0 W/m 12,9 km/h (3 Bft) 94,44 %
17.09.2022 03:27 10,2 C 9,4 C 6,7 C 94 % 1013,4 hPa 0,0 l/m 0 min 0 min 0 W/m 6,4 km/h (2 Bft) 94,44 %
17.09.2022 03:28 10,2 C 9,4 C 6,7 C 94 % 1013,4 hPa 0,0 l/m 0 min 0 min 0 W/m 12,9 km/h (3 Bft) 97,87 %
17.09.2022 03:32 10,1 C 9,4 C 6,7 C 94 % 1013,3 hPa 0,0 l/m 0 min 0 min 0 W/m 9,7 km/h (2 Bft) 98,99 %
17.09.2022 03:36 10,1 C 9,4 C 6,7 C 94 % 1013,3 hPa 0,0 l/m 0 min 0 min 0 W/m 9,7 km/h (2 Bft) 96,81 %
17.09.2022 03:39 10,1 C 9,4 C 6,7 C 94 % 1013,4 hPa 0,0 l/m 0 min 0 min 0 W/m 12,9 km/h (3 Bft) 96,81 %
17.09.2022 03:40 10,1 C 9,4 C 6,7 C 94 % 1013,4 hPa 0,0 l/m 0 min 0 min 0 W/m 12,9 km/h (3 Bft) 97,70 %
17.09.2022 03:44 10,1 C 9,4 C 6,7 C 94 % 1013,4 hPa 0,0 l/m 0 min 0 min 0 W/m 9,7 km/h (2 Bft) 97,00 %
17.09.2022 03:47 10,1 C 9,4 C 6,7 C 94 % 1013,4 hPa 0,0 l/m 0 min 0 min 0 W/m 9,7 km/h (2 Bft) 98,61 %
17.09.2022 03:48 10,1 C 9,4 C 6,7 C 94 % 1013,4 hPa 0,0 l/m 0 min 0 min 0 W/m 6,4 km/h (2 Bft) 98,61 %
17.09.2022 03:52 10,1 C 9,4 C 6,7 C 94 % 1013,4 hPa 0,0 l/m 0 min 0 min 0 W/m 12,9 km/h (3 Bft) 97,41 %
17.09.2022 03:56 10,1 C 9,4 C 6,7 C 94 % 1013,5 hPa 0,0 l/m 0 min 0 min 0 W/m 6,4 km/h (2 Bft) 97,83 %
17.09.2022 03:59 10,2 C 9,4 C 6,7 C 94 % 1013,5 hPa 0,0 l/m 0 min 0 min 0 W/m 12,9 km/h (3 Bft) 97,83 %
17.09.2022 04:00 10,2 C 9,4 C 6,7 C 94 % 1013,5 hPa 0,0 l/m 0 min 0 min 0 W/m 19,3 km/h (3 Bft) 97,75 %
17.09.2022 04:04 10,2 C 9,4 C 6,7 C 94 % 1013,5 hPa 0,0 l/m 0 min 0 min 0 W/m 9,7 km/h (2 Bft) 97,98 %
17.09.2022 04:08 10,2 C 9,4 C 6,7 C 94 % 1013,5 hPa 0,0 l/m 0 min 0 min 0 W/m 12,9 km/h (3 Bft) 95,70 %
17.09.2022 04:12 10,2 C 9,4 C 6,7 C 94 % 1013,6 hPa 0,0 l/m 0 min 0 min 0 W/m 12,9 km/h (3 Bft) 96,88 %
17.09.2022 04:16 10,2 C 9,4 C 6,7 C 94 % 1013,5 hPa 0,0 l/m 0 min 0 min 0 W/m 9,7 km/h (2 Bft) 97,80 %
17.09.2022 04:20 10,2 C 9,4 C 6,7 C 94 % 1013,4 hPa 0,0 l/m 0 min 0 min 0 W/m 16,1 km/h (3 Bft) 98,95 %
17.09.2022 04:24 10,2 C 9,4 C 6,7 C 94 % 1013,5 hPa 0,0 l/m 0 min 0 min 0 W/m 9,7 km/h (2 Bft) 100,00 %
17.09.2022 04:27 10,2 C 9,4 C 6,7 C 94 % 1013,5 hPa 0,0 l/m 0 min 0 min 0 W/m 9,7 km/h (2 Bft) 100,00 %
17.09.2022 04:28 10,2 C 9,4 C 6,7 C 94 % 1013,5 hPa 0,0 l/m 0 min 0 min 0 W/m 9,7 km/h (2 Bft) 100,00 %
17.09.2022 04:32 10,2 C 9,4 C 6,7 C 94 % 1013,5 hPa 0,0 l/m 0 min 0 min 0 W/m 12,9 km/h (3 Bft) 100,00 %
17.09.2022 04:36 10,2 C 9,4 C 6,7 C 94 % 1013,6 hPa 0,0 l/m 0 min 0 min 0 W/m 16,1 km/h (3 Bft) 100,00 %
17.09.2022 04:39 10,2 C 9,4 C 6,7 C 94 % 1013,5 hPa 0,0 l/m 0 min 0 min 0 W/m 9,7 km/h (2 Bft) 100,00 %
17.09.2022 04:40 10,2 C 9,4 C 6,7 C 94 % 1013,5 hPa 0,0 l/m 0 min 0 min 0 W/m 9,7 km/h (2 Bft) 98,88 %
17.09.2022 04:44 10,2 C 9,4 C 6,7 C 94 % 1013,6 hPa 0,0 l/m 0 min 0 min 0 W/m 19,3 km/h (3 Bft) 98,92 %
17.09.2022 04:47 10,2 C 9,4 C 6,7 C 94 % 1013,6 hPa 0,0 l/m 0 min 0 min 0 W/m 6,4 km/h (2 Bft) 98,92 %
17.09.2022 04:48 10,2 C 9,4 C 6,7 C 94 % 1013,6 hPa 0,0 l/m 0 min 0 min 0 W/m 9,7 km/h (2 Bft) 97,96 %
17.09.2022 04:52 10,2 C 9,4 C 6,7 C 94 % 1013,6 hPa 0,0 l/m 0 min 0 min 0 W/m 9,7 km/h (2 Bft) 97,75 %
17.09.2022 04:55 10,2 C 9,4 C 6,7 C 94 % 1013,6 hPa 0,0 l/m 0 min 0 min 0 W/m 9,7 km/h (2 Bft) 97,75 %
17.09.2022 04:56 10,2 C 9,4 C 6,7 C 94 % 1013,6 hPa 0,0 l/m 0 min 0 min 0 W/m 9,7 km/h (2 Bft) 98,00 %
17.09.2022 05:00 10,2 C 9,4 C 6,7 C 94 % 1013,6 hPa 0,0 l/m 0 min 0 min 0 W/m 6,4 km/h (2 Bft) 96,43 %
17.09.2022 05:04 10,2 C 9,4 C 6,7 C 94 % 1013,6 hPa 0,0 l/m 0 min 0 min 0 W/m 12,9 km/h (3 Bft) 95,45 %
17.09.2022 05:07 10,2 C 9,4 C 6,7 C 94 % 1013,7 hPa 0,0 l/m 0 min 0 min 0 W/m 9,7 km/h (2 Bft) 95,45 %
17.09.2022 05:08 10,2 C 9,4 C 6,7 C 94 % 1013,7 hPa 0,0 l/m 0 min 0 min 0 W/m 9,7 km/h (2 Bft) 70,51 %
17.09.2022 05:12 10,2 C 9,4 C 6,7 C 94 % 1013,7 hPa 0,0 l/m 0 min 0 min 0 W/m 12,9 km/h (3 Bft) 95,19 %
17.09.2022 05:16 10,3 C 9,4 C 6,7 C 94 % 1013,7 hPa 0,0 l/m 0 min 0 min 0 W/m 16,1 km/h (3 Bft) 93,55 %
17.09.2022 05:20 10,3 C 10,0 C 6,7 C 94 % 1013,7 hPa 0,0 l/m 0 min 0 min 0 W/m 16,1 km/h (3 Bft) 96,74 %
17.09.2022 05:24 10,3 C 10,0 C 6,7 C 94 % 1013,6 hPa 0,0 l/m 0 min 4 min 0 W/m 16,1 km/h (3 Bft) 97,92 %
17.09.2022 05:27 10,3 C 10,0 C 6,7 C 94 % 1013,6 hPa 0,0 l/m 0 min 0 min 0 W/m 9,7 km/h (2 Bft) 97,92 %
17.09.2022 05:28 10,4 C 10,0 C 6,7 C 94 % 1013,6 hPa 0,0 l/m 0 min 1 min 0 W/m 9,7 km/h (2 Bft) 97,75 %
17.09.2022 05:32 10,3 C 9,4 C 6,7 C 94 % 1013,6 hPa 0,0 l/m 0 min 0 min 0 W/m 16,1 km/h (3 Bft) 96,74 %
17.09.2022 05:36 10,3 C 9,4 C 6,7 C 94 % 1013,6 hPa 0,0 l/m 0 min 0 min 0 W/m 12,9 km/h (3 Bft) 97,96 %
17.09.2022 05:40 10,3 C 9,4 C 6,7 C 94 % 1013,6 hPa 0,0 l/m 0 min 0 min 0 W/m 9,7 km/h (2 Bft) 97,67 %
17.09.2022 05:44 10,3 C 9,4 C 6,7 C 94 % 1013,6 hPa 0,0 l/m 0 min 0 min 0 W/m 12,9 km/h (3 Bft) 97,87 %
17.09.2022 05:48 10,2 C 9,4 C 6,7 C 94 % 1013,7 hPa 0,0 l/m 0 min 0 min 0 W/m 9,7 km/h (2 Bft) 96,74 %
17.09.2022 05:52 10,2 C 9,4 C 6,7 C 94 % 1013,8 hPa 0,0 l/m 0 min 0 min 0 W/m 9,7 km/h (2 Bft) 96,84 %
17.09.2022 05:55 10,1 C 9,4 C 6,7 C 94 % 1013,8 hPa 0,0 l/m 0 min 0 min 0 W/m 12,9 km/h (3 Bft) 96,84 %
17.09.2022 05:56 10,1 C 9,4 C 6,7 C 94 % 1013,8 hPa 0,0 l/m 0 min 0 min 0 W/m 12,9 km/h (3 Bft) 98,97 %
17.09.2022 06:00 10,1 C 9,4 C 6,1 C 94 % 1013,7 hPa 0,0 l/m 0 min 0 min 0 W/m 9,7 km/h (2 Bft) 96,63 %
17.09.2022 06:03 10,1 C 9,4 C 6,7 C 94 % 1013,7 hPa 0,0 l/m 0 min 0 min 0 W/m 6,4 km/h (2 Bft) 96,63 %
17.09.2022 06:04 10,1 C 9,4 C 6,7 C 94 % 1013,7 hPa 0,0 l/m 0 min 0 min 0 W/m 6,4 km/h (2 Bft) 98,92 %
17.09.2022 06:08 10,0 C 9,4 C 6,1 C 94 % 1013,8 hPa 0,0 l/m 0 min 0 min 0 W/m 9,7 km/h (2 Bft) 100,00 %
17.09.2022 06:12 9,9 C 8,9 C 6,1 C 94 % 1013,8 hPa 0,0 l/m 0 min 0 min 0 W/m 9,7 km/h (2 Bft) 96,77 %
17.09.2022 06:15 9,9 C 8,9 C 6,1 C 94 % 1014,0 hPa 0,0 l/m 0 min 0 min 0 W/m 6,4 km/h (2 Bft) 96,77 %
17.09.2022 06:16 9,9 C 8,9 C 6,1 C 94 % 1014,0 hPa 0,0 l/m 0 min 0 min 0 W/m 6,4 km/h (2 Bft) 100,00 %
17.09.2022 06:20 9,8 C 8,9 C 6,1 C 94 % 1013,9 hPa 0,0 l/m 0 min 0 min 0 W/m 9,7 km/h (2 Bft) 98,11 %
17.09.2022 06:23 9,8 C 8,9 C 6,1 C 94 % 1013,9 hPa 0,0 l/m 0 min 0 min 0 W/m 9,7 km/h (2 Bft) 98,11 %
17.09.2022 06:24 9,8 C 8,9 C 6,1 C 94 % 1013,9 hPa 0,0 l/m 0 min 0 min 0 W/m 12,9 km/h (3 Bft) 97,65 %
17.09.2022 06:28 9,8 C 8,9 C 6,1 C 94 % 1013,9 hPa 0,0 l/m 0 min 0 min 0 W/m 12,9 km/h (3 Bft) 95,70 %
17.09.2022 06:30 9,8 C 8,9 C 6,1 C 94 % 1013,9 hPa 0,0 l/m 0 min 0 min 0 W/m 6,4 km/h (2 Bft) 95,74 %
17.09.2022 06:32 9,8 C 8,9 C 6,1 C 94 % 1013,9 hPa 0,0 l/m 0 min 0 min 0 W/m 3,2 km/h (1 Bft) 95,74 %
17.09.2022 06:34 9,8 C 8,9 C 6,1 C 94 % 1013,9 hPa 0,0 l/m 0 min 0 min 0 W/m 6,4 km/h (2 Bft) 93,62 %
17.09.2022 06:36 9,7 C 8,9 C 6,1 C 94 % 1013,9 hPa 0,0 l/m 0 min 0 min 0 W/m 6,4 km/h (2 Bft) 96,55 %
17.09.2022 06:40 9,7 C 8,9 C 6,1 C 94 % 1014,0 hPa 0,0 l/m 0 min 0 min 0 W/m 6,4 km/h (2 Bft) 97,37 %
17.09.2022 06:44 9,7 C 8,9 C 6,1 C 94 % 1014,0 hPa 0,0 l/m 0 min 0 min 0 W/m 6,4 km/h (2 Bft) 94,37 %
17.09.2022 06:46 9,7 C 8,9 C 6,1 C 94 % 1014,0 hPa 0,0 l/m 0 min 0 min 0 W/m 6,4 km/h (2 Bft) 95,65 %
17.09.2022 06:48 9,7 C 8,9 C 6,1 C 95 % 1014,0 hPa 0,0 l/m 0 min 0 min 0 W/m 3,2 km/h (1 Bft) 95,74 %
17.09.2022 06:50 9,7 C 8,9 C 6,1 C 94 % 1014,0 hPa 0,0 l/m 0 min 0 min 0 W/m 9,7 km/h (2 Bft) 95,74 %
17.09.2022 06:52 9,6 C 8,9 C 6,1 C 94 % 1014,0 hPa 0,0 l/m 0 min 0 min 0 W/m 3,2 km/h (1 Bft) 95,74 %
17.09.2022 06:54 9,6 C 8,9 C 6,1 C 94 % 1014,0 hPa 0,0 l/m 0 min 0 min 0 W/m 3,2 km/h (1 Bft) 95,74 %
17.09.2022 06:56 9,6 C 8,9 C 6,1 C 94 % 1014,0 hPa 0,0 l/m 0 min 0 min 0 W/m 6,4 km/h (2 Bft) 95,24 %
17.09.2022 06:58 9,6 C 8,9 C 6,1 C 94 % 1014,0 hPa 0,0 l/m 0 min 0 min 0 W/m 6,4 km/h (2 Bft) 94,12 %
17.09.2022 07:00 9,6 C 8,9 C 6,1 C 94 % 1014,1 hPa 0,0 l/m 0 min 0 min 0 W/m 6,4 km/h (2 Bft) 93,62 %
17.09.2022 07:02 9,6 C 8,9 C 6,1 C 94 % 1014,0 hPa 0,0 l/m 0 min 0 min 0 W/m 3,2 km/h (1 Bft) 95,74 %
17.09.2022 07:04 9,6 C 8,9 C 6,1 C 94 % 1014,1 hPa 0,0 l/m 0 min 0 min 0 W/m 9,7 km/h (2 Bft) 100,00 %
17.09.2022 07:06 9,6 C 8,9 C 6,1 C 94 % 1014,0 hPa 0,0 l/m 0 min 0 min 0 W/m 6,4 km/h (2 Bft) 100,00 %
17.09.2022 07:08 9,6 C 8,9 C 6,1 C 94 % 1014,1 hPa 0,0 l/m 0 min 0 min 0 W/m 6,4 km/h (2 Bft) 100,00 %
17.09.2022 07:10 9,6 C 8,9 C 6,1 C 94 % 1014,1 hPa 0,0 l/m 0 min 0 min 0 W/m 6,4 km/h (2 Bft) 100,00 %
17.09.2022 07:12 9,6 C 8,9 C 6,1 C 94 % 1014,1 hPa 0,0 l/m 0 min 0 min 0 W/m 6,4 km/h (2 Bft) 100,00 %
17.09.2022 07:14 9,6 C 8,9 C 6,1 C 95 % 1014,1 hPa 0,0 l/m 0 min 0 min 5 W/m 3,2 km/h (1 Bft) 100,00 %
17.09.2022 07:16 9,6 C 8,9 C 6,1 C 95 % 1014,1 hPa 0,0 l/m 0 min 0 min 5 W/m 6,4 km/h (2 Bft) 97,87 %
17.09.2022 07:18 9,6 C 8,9 C 6,1 C 95 % 1014,1 hPa 0,0 l/m 0 min 0 min 7 W/m 6,4 km/h (2 Bft) 100,00 %
17.09.2022 07:20 9,6 C 8,9 C 6,1 C 95 % 1014,1 hPa 0,0 l/m 0 min 0 min 7 W/m 9,7 km/h (2 Bft) 100,00 %
17.09.2022 07:22 9,7 C 8,9 C 6,1 C 95 % 1014,1 hPa 0,0 l/m 0 min 0 min 7 W/m 6,4 km/h (2 Bft) 97,87 %
17.09.2022 07:24 9,6 C 9,4 C 6,7 C 95 % 1014,2 hPa 0,0 l/m 0 min 0 min 9 W/m 6,4 km/h (2 Bft) 100,00 %
17.09.2022 07:26 9,7 C 9,4 C 6,7 C 95 % 1014,2 hPa 0,0 l/m 0 min 0 min 11 W/m 9,7 km/h (2 Bft) 100,00 %
17.09.2022 07:28 9,7 C 9,4 C 6,1 C 95 % 1014,2 hPa 0,0 l/m 0 min 0 min 12 W/m 6,4 km/h (2 Bft) 100,00 %
17.09.2022 07:30 9,7 C 9,4 C 6,1 C 95 % 1014,2 hPa 0,0 l/m 0 min 0 min 14 W/m 6,4 km/h (2 Bft) 100,00 %
17.09.2022 07:32 9,7 C 9,4 C 6,7 C 95 % 1014,3 hPa 0,0 l/m 0 min 0 min 16 W/m 12,9 km/h (3 Bft) 97,87 %
17.09.2022 07:34 9,7 C 9,4 C 6,7 C 95 % 1014,3 hPa 0,0 l/m 0 min 0 min 19 W/m 9,7 km/h (2 Bft) 100,00 %
17.09.2022 07:36 9,8 C 9,4 C 6,7 C 95 % 1014,3 hPa 0,0 l/m 0 min 0 min 21 W/m 6,4 km/h (2 Bft) 100,00 %
17.09.2022 07:38 9,8 C 9,4 C 6,7 C 95 % 1014,3 hPa 0,0 l/m 0 min 0 min 24 W/m 9,7 km/h (2 Bft) 100,00 %
17.09.2022 07:40 9,8 C 9,4 C 6,7 C 95 % 1014,3 hPa 0,0 l/m 0 min 0 min 27 W/m 16,1 km/h (3 Bft) 95,74 %
17.09.2022 07:42 9,8 C 9,4 C 6,7 C 95 % 1014,2 hPa 0,0 l/m 0 min 0 min 30 W/m 6,4 km/h (2 Bft) 100,00 %
17.09.2022 07:44 9,8 C 9,4 C 6,7 C 95 % 1014,2 hPa 0,0 l/m 0 min 0 min 28 W/m 6,4 km/h (2 Bft) 100,00 %
17.09.2022 07:46 9,8 C 9,4 C 6,7 C 94 % 1014,3 hPa 0,0 l/m 0 min 0 min 26 W/m 6,4 km/h (2 Bft) 100,00 %
17.09.2022 07:48 9,8 C 9,4 C 6,7 C 94 % 1014,3 hPa 0,0 l/m 0 min 0 min 26 W/m 9,7 km/h (2 Bft) 100,00 %
17.09.2022 07:50 9,9 C 9,4 C 6,7 C 94 % 1014,3 hPa 0,0 l/m 0 min 0 min 26 W/m 3,2 km/h (1 Bft) 100,00 %
17.09.2022 07:52 9,9 C 9,4 C 6,7 C 94 % 1014,3 hPa 0,0 l/m 0 min 0 min 25 W/m 6,4 km/h (2 Bft) 100,00 %
17.09.2022 07:54 9,9 C 9,4 C 6,7 C 94 % 1014,3 hPa 0,0 l/m 0 min 0 min 22 W/m 6,4 km/h (2 Bft) 97,87 %
17.09.2022 07:56 9,9 C 9,4 C 6,7 C 94 % 1014,3 hPa 0,0 l/m 0 min 0 min 20 W/m 12,9 km/h (3 Bft) 100,00 %
17.09.2022 07:58 9,9 C 9,4 C 6,7 C 94 % 1014,3 hPa 0,0 l/m 0 min 0 min 19 W/m 6,4 km/h (2 Bft) 97,87 %
17.09.2022 08:00 9,9 C 9,4 C 6,7 C 94 % 1014,3 hPa 0,0 l/m 0 min 0 min 18 W/m 6,4 km/h (2 Bft) 100,00 %
17.09.2022 08:02 9,9 C 9,4 C 6,7 C 94 % 1014,4 hPa 0,0 l/m 0 min 0 min 17 W/m 6,4 km/h (2 Bft) 100,00 %
17.09.2022 08:04 9,9 C 9,4 C 6,7 C 94 % 1014,4 hPa 0,0 l/m 0 min 0 min 17 W/m 6,4 km/h (2 Bft) 100,00 %
17.09.2022 08:06 9,9 C 9,4 C 6,7 C 94 % 1014,4 hPa 0,0 l/m 0 min 0 min 18 W/m 12,9 km/h (3 Bft) 100,00 %
17.09.2022 08:08 9,9 C 9,4 C 6,7 C 94 % 1014,4 hPa 0,0 l/m 0 min 0 min 18 W/m 6,4 km/h (2 Bft) 100,00 %
17.09.2022 08:10 9,9 C 9,4 C 6,7 C 94 % 1014,4 hPa 0,0 l/m 0 min 0 min 18 W/m 6,4 km/h (2 Bft) 100,00 %
17.09.2022 08:12 9,9 C 9,4 C 6,7 C 94 % 1014,4 hPa 0,0 l/m 0 min 0 min 18 W/m 9,7 km/h (2 Bft) 97,87 %
17.09.2022 08:14 9,9 C 9,4 C 6,7 C 94 % 1014,5 hPa 0,0 l/m 0 min 0 min 18 W/m 12,9 km/h (3 Bft) 100,00 %
17.09.2022 08:16 9,9 C 9,4 C 6,7 C 94 % 1014,5 hPa 0,0 l/m 0 min 0 min 18 W/m 16,1 km/h (3 Bft) 97,87 %
17.09.2022 08:18 9,9 C 9,4 C 6,7 C 94 % 1014,6 hPa 0,0 l/m 0 min 0 min 18 W/m 12,9 km/h (3 Bft) 97,87 %
17.09.2022 08:20 10,0 C 9,4 C 6,7 C 93 % 1014,6 hPa 0,0 l/m 0 min 0 min 19 W/m 6,4 km/h (2 Bft) 95,65 %
17.09.2022 08:22 10,0 C 9,4 C 6,7 C 93 % 1014,6 hPa 0,0 l/m 0 min 0 min 19 W/m 9,7 km/h (2 Bft) 93,62 %
17.09.2022 08:24 10,0 C 9,4 C 6,7 C 93 % 1014,6 hPa 0,0 l/m 0 min 0 min 19 W/m 9,7 km/h (2 Bft) 95,74 %
17.09.2022 08:26 10,0 C 9,4 C 6,7 C 93 % 1014,6 hPa 0,0 l/m 0 min 0 min 19 W/m 9,7 km/h (2 Bft) 95,74 %
17.09.2022 08:28 10,0 C 9,4 C 6,7 C 93 % 1014,6 hPa 0,0 l/m 0 min 0 min 20 W/m 16,1 km/h (3 Bft) 93,62 %
17.09.2022 08:30 10,1 C 9,4 C 6,7 C 93 % 1014,7 hPa 0,0 l/m 0 min 0 min 25 W/m 6,4 km/h (2 Bft) 95,74 %
17.09.2022 08:32 10,1 C 9,4 C 6,7 C 93 % 1014,7 hPa 0,0 l/m 0 min 0 min 35 W/m 6,4 km/h (2 Bft) 95,65 %
17.09.2022 08:34 10,1 C 9,4 C 6,7 C 93 % 1014,7 hPa 0,0 l/m 0 min 0 min 55 W/m 3,2 km/h (1 Bft) 95,74 %
17.09.2022 08:36 10,1 C 10,0 C 6,7 C 93 % 1014,7 hPa 0,0 l/m 0 min 0 min 68 W/m 9,7 km/h (2 Bft) 94,92 %
17.09.2022 08:38 10,1 C 10,0 C 6,7 C 93 % 1014,7 hPa 0,0 l/m 0 min 0 min 65 W/m 6,4 km/h (2 Bft) 97,14 %
17.09.2022 08:40 10,1 C 10,0 C 6,7 C 93 % 1014,7 hPa 0,0 l/m 0 min 0 min 66 W/m 6,4 km/h (2 Bft) 93,62 %
17.09.2022 08:42 10,2 C 10,0 C 7,2 C 93 % 1014,7 hPa 0,0 l/m 0 min 0 min 86 W/m 12,9 km/h (3 Bft) 95,65 %
17.09.2022 08:44 10,2 C 10,6 C 7,2 C 93 % 1014,7 hPa 0,0 l/m 0 min 0 min 109 W/m 12,9 km/h (3 Bft) 95,74 %
17.09.2022 08:46 10,3 C 10,6 C 7,2 C 93 % 1014,7 hPa 0,0 l/m 0 min 0 min 104 W/m 12,9 km/h (3 Bft) 93,62 %
17.09.2022 08:48 10,4 C 10,6 C 7,2 C 93 % 1014,7 hPa 0,0 l/m 0 min 0 min 95 W/m 12,9 km/h (3 Bft) 91,49 %
17.09.2022 08:50 10,4 C 10,6 C 7,2 C 93 % 1014,7 hPa 0,0 l/m 0 min 0 min 93 W/m 12,9 km/h (3 Bft) 97,87 %
17.09.2022 08:52 10,5 C 10,6 C 7,2 C 93 % 1014,8 hPa 0,0 l/m 0 min 0 min 84 W/m 12,9 km/h (3 Bft) 97,87 %
17.09.2022 08:54 10,6 C 10,6 C 7,2 C 93 % 1014,7 hPa 0,0 l/m 0 min 0 min 75 W/m 16,1 km/h (3 Bft) 95,65 %
17.09.2022 08:56 10,6 C 10,6 C 7,2 C 93 % 1014,8 hPa 0,0 l/m 0 min 0 min 77 W/m 6,4 km/h (2 Bft) 95,74 %
17.09.2022 08:58 10,6 C 10,6 C 7,2 C 92 % 1014,8 hPa 0,0 l/m 0 min 0 min 83 W/m 6,4 km/h (2 Bft) 95,74 %
17.09.2022 09:00 10,7 C 10,6 C 7,2 C 92 % 1014,8 hPa 0,0 l/m 0 min 0 min 84 W/m 12,9 km/h (3 Bft) 95,74 %
17.09.2022 09:02 10,7 C 10,6 C 7,2 C 92 % 1014,9 hPa 0,0 l/m 0 min 0 min 81 W/m 12,9 km/h (3 Bft) 95,74 %
17.09.2022 09:04 10,8 C 10,6 C 7,8 C 92 % 1014,8 hPa 0,0 l/m 0 min 0 min 78 W/m 19,3 km/h (3 Bft) 93,62 %
17.09.2022 09:06 10,8 C 10,6 C 7,8 C 92 % 1014,9 hPa 0,0 l/m 0 min 0 min 76 W/m 9,7 km/h (2 Bft) 96,55 %
17.09.2022 09:08 10,8 C 10,6 C 7,8 C 92 % 1014,9 hPa 0,0 l/m 0 min 0 min 76 W/m 16,1 km/h (3 Bft) 97,14 %
17.09.2022 09:10 10,9 C 10,6 C 7,8 C 92 % 1014,9 hPa 0,0 l/m 0 min 0 min 77 W/m 16,1 km/h (3 Bft) 97,87 %
17.09.2022 09:12 10,9 C 11,1 C 7,8 C 91 % 1014,9 hPa 0,0 l/m 0 min 0 min 82 W/m 6,4 km/h (2 Bft) 97,87 %
17.09.2022 09:14 11,0 C 11,1 C 7,8 C 92 % 1014,9 hPa 0,0 l/m 0 min 0 min 94 W/m 12,9 km/h (3 Bft) 97,87 %
17.09.2022 09:16 11,1 C 11,1 C 7,8 C 91 % 1014,9 hPa 0,0 l/m 0 min 0 min 83 W/m 12,9 km/h (3 Bft) 97,87 %
17.09.2022 09:18 11,1 C 11,1 C 7,8 C 91 % 1014,9 hPa 0,0 l/m 0 min 0 min 68 W/m 16,1 km/h (3 Bft) 95,74 %
17.09.2022 09:20 11,1 C 11,1 C 7,8 C 91 % 1014,9 hPa 0,0 l/m 0 min 0 min 59 W/m 12,9 km/h (3 Bft) 97,83 %
17.09.2022 09:22 11,2 C 11,1 C 7,8 C 91 % 1014,9 hPa 0,0 l/m 0 min 0 min 62 W/m 16,1 km/h (3 Bft) 97,87 %
17.09.2022 09:24 11,2 C 11,1 C 7,8 C 91 % 1014,8 hPa 0,0 l/m 0 min 0 min 65 W/m 16,1 km/h (3 Bft) 97,87 %
17.09.2022 09:26 11,3 C 11,1 C 7,8 C 90 % 1014,9 hPa 0,0 l/m 0 min 0 min 72 W/m 16,1 km/h (3 Bft) 97,87 %
17.09.2022 09:28 11,3 C 11,1 C 7,8 C 90 % 1014,8 hPa 0,0 l/m 0 min 0 min 82 W/m 12,9 km/h (3 Bft) 97,87 %
17.09.2022 09:30 11,4 C 11,7 C 7,8 C 90 % 1014,8 hPa 0,0 l/m 0 min 0 min 90 W/m 16,1 km/h (3 Bft) 95,65 %
17.09.2022 09:32 11,4 C 11,7 C 8,3 C 90 % 1014,8 hPa 0,0 l/m 0 min 0 min 80 W/m 12,9 km/h (3 Bft) 97,87 %
17.09.2022 09:34 11,5 C 11,7 C 8,3 C 90 % 1014,8 hPa 0,0 l/m 0 min 0 min 74 W/m 12,9 km/h (3 Bft) 97,87 %
17.09.2022 09:36 11,6 C 11,7 C 8,3 C 89 % 1014,9 hPa 0,0 l/m 0 min 0 min 98 W/m 12,9 km/h (3 Bft) 98,31 %
17.09.2022 09:38 11,6 C 11,7 C 8,3 C 89 % 1014,8 hPa 0,0 l/m 0 min 0 min 125 W/m 16,1 km/h (3 Bft) 97,14 %
17.09.2022 09:40 11,7 C 12,2 C 8,3 C 89 % 1014,8 hPa 0,0 l/m 0 min 0 min 147 W/m 16,1 km/h (3 Bft) 95,74 %
17.09.2022 09:42 11,8 C 12,2 C 8,3 C 89 % 1014,8 hPa 0,0 l/m 0 min 0 min 121 W/m 19,3 km/h (3 Bft) 95,65 %
17.09.2022 09:44 11,8 C 12,2 C 8,3 C 88 % 1014,8 hPa 0,0 l/m 0 min 0 min 102 W/m 12,9 km/h (3 Bft) 97,87 %
17.09.2022 09:46 11,8 C 12,2 C 8,3 C 88 % 1014,8 hPa 0,0 l/m 0 min 0 min 122 W/m 12,9 km/h (3 Bft) 97,87 %
17.09.2022 09:48 11,9 C 12,2 C 8,9 C 87 % 1014,8 hPa 0,0 l/m 0 min 0 min 140 W/m 16,1 km/h (3 Bft) 97,87 %
17.09.2022 09:50 12,0 C 12,2 C 8,9 C 87 % 1014,9 hPa 0,0 l/m 0 min 0 min 145 W/m 12,9 km/h (3 Bft) 100,00 %
17.09.2022 09:52 12,1 C 12,2 C 8,9 C 87 % 1014,9 hPa 0,0 l/m 0 min 0 min 111 W/m 19,3 km/h (3 Bft) 100,00 %
17.09.2022 09:54 12,1 C 12,2 C 8,9 C 86 % 1014,8 hPa 0,0 l/m 0 min 0 min 111 W/m 25,7 km/h (4 Bft) 100,00 %
17.09.2022 09:56 12,1 C 12,2 C 8,9 C 86 % 1014,8 hPa 0,0 l/m 0 min 0 min 145 W/m 19,3 km/h (3 Bft) 100,00 %
17.09.2022 09:58 12,2 C 12,8 C 8,9 C 86 % 1014,8 hPa 0,0 l/m 0 min 0 min 130 W/m 9,7 km/h (2 Bft) 100,00 %
17.09.2022 10:00 12,3 C 12,8 C 8,9 C 85 % 1014,9 hPa 0,0 l/m 0 min 0 min 163 W/m 22,5 km/h (4 Bft) 100,00 %
17.09.2022 10:02 12,3 C 12,8 C 8,9 C 85 % 1014,8 hPa 0,0 l/m 0 min 0 min 166 W/m 16,1 km/h (3 Bft) 100,00 %
17.09.2022 10:04 12,4 C 12,8 C 8,9 C 85 % 1014,8 hPa 0,0 l/m 0 min 0 min 144 W/m 16,1 km/h (3 Bft) 100,00 %
17.09.2022 10:06 12,4 C 12,8 C 8,9 C 84 % 1014,9 hPa 0,0 l/m 0 min 0 min 118 W/m 19,3 km/h (3 Bft) 100,00 %
17.09.2022 10:08 12,4 C 12,2 C 8,9 C 84 % 1014,9 hPa 0,0 l/m 0 min 0 min 100 W/m 19,3 km/h (3 Bft) 97,83 %
17.09.2022 10:10 12,5 C 12,2 C 8,9 C 84 % 1014,9 hPa 0,0 l/m 0 min 0 min 107 W/m 22,5 km/h (4 Bft) 97,87 %
17.09.2022 10:12 12,6 C 12,2 C 8,9 C 84 % 1014,9 hPa 0,0 l/m 0 min 0 min 136 W/m 19,3 km/h (3 Bft) 100,00 %
17.09.2022 10:14 12,6 C 12,2 C 8,9 C 84 % 1014,8 hPa 0,0 l/m 0 min 0 min 73 W/m 12,9 km/h (3 Bft) 100,00 %
17.09.2022 10:16 12,6 C 12,2 C 8,9 C 84 % 1014,9 hPa 0,0 l/m 0 min 0 min 76 W/m 16,1 km/h (3 Bft) 97,87 %
17.09.2022 10:18 12,7 C 12,2 C 8,9 C 83 % 1014,9 hPa 0,0 l/m 0 min 0 min 82 W/m 16,1 km/h (3 Bft) 95,65 %
17.09.2022 10:20 12,7 C 12,8 C 8,9 C 83 % 1014,8 hPa 0,0 l/m 0 min 0 min 110 W/m 22,5 km/h (4 Bft) 97,87 %
17.09.2022 10:22 12,7 C 12,8 C 8,9 C 83 % 1014,8 hPa 0,0 l/m 0 min 0 min 118 W/m 19,3 km/h (3 Bft) 97,87 %
17.09.2022 10:24 12,8 C 12,8 C 8,9 C 82 % 1014,9 hPa 0,0 l/m 0 min 0 min 121 W/m 22,5 km/h (4 Bft) 97,87 %
17.09.2022 10:26 12,8 C 12,8 C 8,9 C 83 % 1014,9 hPa 0,0 l/m 0 min 0 min 94 W/m 29,0 km/h (5 Bft) 95,74 %
17.09.2022 10:28 12,8 C 12,8 C 8,9 C 83 % 1014,9 hPa 0,0 l/m 0 min 0 min 78 W/m 25,7 km/h (4 Bft) 95,74 %
17.09.2022 10:30 12,9 C 12,8 C 8,9 C 82 % 1014,9 hPa 0,0 l/m 0 min 0 min 73 W/m 16,1 km/h (3 Bft) 97,83 %
17.09.2022 10:32 12,9 C 12,8 C 8,9 C 82 % 1014,9 hPa 0,0 l/m 0 min 0 min 85 W/m 16,1 km/h (3 Bft) 97,87 %
17.09.2022 10:34 12,9 C 12,8 C 8,9 C 82 % 1015,0 hPa 0,0 l/m 0 min 0 min 132 W/m 16,1 km/h (3 Bft) 97,87 %
17.09.2022 10:36 12,9 C 12,8 C 8,9 C 82 % 1014,9 hPa 0,0 l/m 0 min 0 min 140 W/m 12,9 km/h (3 Bft) 97,87 %
17.09.2022 10:38 13,0 C 12,8 C 8,9 C 82 % 1014,9 hPa 0,0 l/m 0 min 0 min 166 W/m 19,3 km/h (3 Bft) 100,00 %
17.09.2022 10:40 13,1 C 12,8 C 9,4 C 82 % 1014,9 hPa 0,0 l/m 0 min 0 min 117 W/m 16,1 km/h (3 Bft) 97,87 %
17.09.2022 10:42 13,1 C 12,8 C 9,4 C 82 % 1014,9 hPa 0,0 l/m 0 min 0 min 85 W/m 16,1 km/h (3 Bft) 95,65 %
17.09.2022 10:44 13,2 C 12,8 C 9,4 C 82 % 1014,8 hPa 0,0 l/m 0 min 0 min 71 W/m 9,7 km/h (2 Bft) 97,87 %
17.09.2022 10:46 13,2 C 13,3 C 9,4 C 82 % 1014,9 hPa 0,0 l/m 0 min 0 min 71 W/m 16,1 km/h (3 Bft) 97,87 %
17.09.2022 10:48 13,3 C 13,3 C 9,4 C 82 % 1014,9 hPa 0,0 l/m 0 min 0 min 80 W/m 16,1 km/h (3 Bft) 97,87 %
17.09.2022 10:50 13,3 C 13,3 C 9,4 C 82 % 1014,9 hPa 0,0 l/m 0 min 0 min 80 W/m 16,1 km/h (3 Bft) 97,87 %
17.09.2022 10:52 13,4 C 13,3 C 9,4 C 81 % 1015,0 hPa 0,0 l/m 0 min 0 min 104 W/m 12,9 km/h (3 Bft) 97,87 %
17.09.2022 10:54 13,4 C 13,3 C 9,4 C 81 % 1014,9 hPa 0,0 l/m 0 min 0 min 114 W/m 12,9 km/h (3 Bft) 100,00 %
17.09.2022 10:56 13,5 C 13,9 C 9,4 C 81 % 1015,0 hPa 0,0 l/m 0 min 0 min 228 W/m 16,1 km/h (3 Bft) 97,87 %
17.09.2022 10:58 13,6 C 13,9 C 9,4 C 80 % 1015,0 hPa 0,0 l/m 0 min 0 min 255 W/m 16,1 km/h (3 Bft) 100,00 %
17.09.2022 11:00 13,6 C 13,9 C 9,4 C 79 % 1015,0 hPa 0,0 l/m 0 min 0 min 255 W/m 12,9 km/h (3 Bft) 95,74 %
17.09.2022 11:02 13,6 C 13,9 C 9,4 C 79 % 1015,0 hPa 0,0 l/m 0 min 0 min 255 W/m 19,3 km/h (3 Bft) 97,87 %
17.09.2022 11:04 13,6 C 14,4 C 9,4 C 79 % 1015,0 hPa 0,0 l/m 0 min 0 min 255 W/m 16,1 km/h (3 Bft) 95,74 %
17.09.2022 11:06 13,6 C 15,0 C 9,4 C 78 % 1015,0 hPa 0,0 l/m 0 min 0 min 257 W/m 12,9 km/h (3 Bft) 95,65 %
17.09.2022 11:08 13,7 C 15,0 C 10,0 C 78 % 1015,0 hPa 0,0 l/m 0 min 0 min 249 W/m 16,1 km/h (3 Bft) 97,87 %
17.09.2022 11:10 13,7 C 14,4 C 10,0 C 77 % 1015,0 hPa 0,0 l/m 0 min 0 min 213 W/m 16,1 km/h (3 Bft) 95,74 %
17.09.2022 11:12 13,8 C 14,4 C 10,0 C 78 % 1015,0 hPa 0,0 l/m 0 min 0 min 185 W/m 9,7 km/h (2 Bft) 97,87 %
17.09.2022 11:14 13,8 C 14,4 C 10,0 C 78 % 1015,0 hPa 0,0 l/m 0 min 0 min 122 W/m 25,7 km/h (4 Bft) 97,87 %
17.09.2022 11:16 13,9 C 14,4 C 10,0 C 77 % 1015,0 hPa 0,0 l/m 0 min 0 min 138 W/m 16,1 km/h (3 Bft) 97,87 %
17.09.2022 11:18 13,9 C 14,4 C 10,0 C 77 % 1015,0 hPa 0,0 l/m 0 min 0 min 154 W/m 22,5 km/h (4 Bft) 97,83 %
17.09.2022 11:20 14,0 C 14,4 C 10,6 C 77 % 1014,9 hPa 0,0 l/m 0 min 0 min 149 W/m 12,9 km/h (3 Bft) 97,87 %
17.09.2022 11:22 14,1 C 14,4 C 10,0 C 77 % 1014,9 hPa 0,0 l/m 0 min 0 min 164 W/m 16,1 km/h (3 Bft) 93,62 %
17.09.2022 11:24 14,1 C 15,0 C 10,6 C 76 % 1014,9 hPa 0,0 l/m 0 min 0 min 220 W/m 19,3 km/h (3 Bft) 97,87 %
17.09.2022 11:26 14,1 C 14,4 C 10,6 C 77 % 1015,0 hPa 0,0 l/m 0 min 0 min 183 W/m 25,7 km/h (4 Bft) 97,87 %
17.09.2022 11:28 14,1 C 14,4 C 10,6 C 76 % 1014,9 hPa 0,0 l/m 0 min 0 min 210 W/m 16,1 km/h (3 Bft) 95,74 %
17.09.2022 11:30 14,1 C 15,0 C 10,6 C 76 % 1014,9 hPa 0,0 l/m 0 min 0 min 176 W/m 22,5 km/h (4 Bft) 97,83 %
17.09.2022 11:32 14,2 C 14,4 C 10,6 C 76 % 1015,0 hPa 0,0 l/m 0 min 0 min 168 W/m 29,0 km/h (5 Bft) 95,74 %
17.09.2022 11:34 14,1 C 14,4 C 10,6 C 75 % 1014,9 hPa 0,0 l/m 0 min 0 min 166 W/m 19,3 km/h (3 Bft) 97,87 %
17.09.2022 11:36 14,1 C 14,4 C 10,6 C 75 % 1015,0 hPa 0,0 l/m 0 min 0 min 216 W/m 12,9 km/h (3 Bft) 97,87 %
17.09.2022 11:38 14,2 C 13,9 C 10,6 C 76 % 1015,0 hPa 0,0 l/m 0 min 0 min 138 W/m 12,9 km/h (3 Bft) 97,87 %
17.09.2022 11:40 14,1 C 13,9 C 10,0 C 76 % 1015,0 hPa 0,0 l/m 0 min 0 min 129 W/m 12,9 km/h (3 Bft) 93,62 %
17.09.2022 11:42 14,1 C 14,4 C 10,0 C 76 % 1015,0 hPa 0,0 l/m 0 min 0 min 194 W/m 19,3 km/h (3 Bft) 97,83 %
17.09.2022 11:44 14,1 C 15,6 C 10,6 C 76 % 1015,0 hPa 0,0 l/m 2 min 0 min 585 W/m 19,3 km/h (3 Bft) 100,00 %
17.09.2022 11:46 14,1 C 16,1 C 11,1 C 75 % 1015,0 hPa 0,0 l/m 2 min 0 min 786 W/m 19,3 km/h (3 Bft) 95,74 %
17.09.2022 11:48 14,2 C 16,1 C 11,1 C 75 % 1015,0 hPa 0,0 l/m 2 min 0 min 789 W/m 16,1 km/h (3 Bft) 100,00 %
17.09.2022 11:50 14,3 C 16,1 C 11,7 C 75 % 1014,9 hPa 0,0 l/m 2 min 0 min 789 W/m 9,7 km/h (2 Bft) 100,00 %
17.09.2022 11:52 14,3 C 15,0 C 11,1 C 75 % 1015,0 hPa 0,0 l/m 0 min 0 min 256 W/m 19,3 km/h (3 Bft) 100,00 %
17.09.2022 11:54 14,3 C 14,4 C 11,1 C 74 % 1014,9 hPa 0,0 l/m 0 min 0 min 156 W/m 16,1 km/h (3 Bft) 100,00 %
17.09.2022 11:56 14,3 C 14,4 C 10,6 C 74 % 1014,9 hPa 0,0 l/m 0 min 0 min 156 W/m 16,1 km/h (3 Bft) 97,87 %
17.09.2022 11:58 14,3 C 13,9 C 10,6 C 74 % 1014,9 hPa 0,0 l/m 0 min 0 min 195 W/m 22,5 km/h (4 Bft) 100,00 %
17.09.2022 12:00 14,2 C 13,9 C 10,6 C 73 % 1014,9 hPa 0,0 l/m 0 min 0 min 251 W/m 22,5 km/h (4 Bft) 100,00 %
17.09.2022 12:02 14,2 C 13,9 C 10,6 C 73 % 1014,9 hPa 0,0 l/m 0 min 0 min 228 W/m 16,1 km/h (3 Bft) 95,74 %
17.09.2022 12:04 14,1 C 13,9 C 10,6 C 74 % 1014,9 hPa 0,0 l/m 0 min 0 min 259 W/m 16,1 km/h (3 Bft) 100,00 %
17.09.2022 12:08 14,2 C 14,4 C 10,6 C 74 % 1014,9 hPa 0,0 l/m 0 min 0 min 246 W/m 12,9 km/h (3 Bft) 99,00 %
17.09.2022 12:10 14,2 C 13,9 C 10,6 C 74 % 1014,9 hPa 0,0 l/m 0 min 0 min 181 W/m 16,1 km/h (3 Bft) 97,83 %
17.09.2022 12:12 14,2 C 13,9 C 10,6 C 73 % 1014,8 hPa 0,0 l/m 0 min 0 min 148 W/m 19,3 km/h (3 Bft) 100,00 %
17.09.2022 12:14 14,1 C 13,9 C 10,0 C 74 % 1014,8 hPa 0,0 l/m 0 min 0 min 196 W/m 16,1 km/h (3 Bft) 100,00 %
17.09.2022 12:16 14,1 C 15,0 C 10,6 C 74 % 1014,8 hPa 0,0 l/m 0 min 0 min 218 W/m 12,9 km/h (3 Bft) 100,00 %
17.09.2022 12:18 14,2 C 15,6 C 10,6 C 74 % 1014,8 hPa 0,0 l/m 0 min 0 min 252 W/m 19,3 km/h (3 Bft) 97,87 %
17.09.2022 12:20 14,3 C 15,0 C 10,6 C 75 % 1014,8 hPa 0,0 l/m 0 min 0 min 254 W/m 16,1 km/h (3 Bft) 97,83 %
17.09.2022 12:22 14,3 C 15,0 C 10,6 C 75 % 1014,8 hPa 0,0 l/m 0 min 0 min 291 W/m 19,3 km/h (3 Bft) 100,00 %
17.09.2022 12:24 14,3 C 15,6 C 11,1 C 75 % 1014,8 hPa 0,0 l/m 2 min 0 min 448 W/m 19,3 km/h (3 Bft) 97,87 %
17.09.2022 12:26 14,5 C 15,0 C 11,1 C 75 % 1014,7 hPa 0,0 l/m 2 min 0 min 340 W/m 16,1 km/h (3 Bft) 93,62 %
17.09.2022 12:28 14,6 C 15,6 C 10,6 C 75 % 1014,8 hPa 0,0 l/m 0 min 0 min 179 W/m 16,1 km/h (3 Bft) 95,74 %
17.09.2022 12:30 14,6 C 15,6 C 10,6 C 74 % 1014,6 hPa 0,0 l/m 0 min 0 min 259 W/m 16,1 km/h (3 Bft) 93,62 %
17.09.2022 12:32 14,7 C 15,6 C 11,1 C 74 % 1014,7 hPa 0,0 l/m 2 min 0 min 364 W/m 16,1 km/h (3 Bft) 93,48 %
17.09.2022 12:34 14,8 C 15,6 C 11,1 C 74 % 1014,7 hPa 0,0 l/m 0 min 0 min 292 W/m 12,9 km/h (3 Bft) 95,74 %
17.09.2022 12:36 14,8 C 15,0 C 11,1 C 73 % 1014,7 hPa 0,0 l/m 0 min 0 min 146 W/m 12,9 km/h (3 Bft) 93,62 %
17.09.2022 12:38 14,7 C 14,4 C 10,6 C 72 % 1014,7 hPa 0,0 l/m 0 min 0 min 166 W/m 22,5 km/h (4 Bft) 95,74 %
17.09.2022 12:40 14,7 C 14,4 C 10,6 C 72 % 1014,7 hPa 0,0 l/m 0 min 0 min 173 W/m 25,7 km/h (4 Bft) 95,74 %
17.09.2022 12:42 14,7 C 14,4 C 10,6 C 72 % 1014,6 hPa 0,0 l/m 0 min 0 min 136 W/m 16,1 km/h (3 Bft) 95,74 %
17.09.2022 12:44 14,8 C 15,0 C 11,1 C 73 % 1014,7 hPa 0,0 l/m 0 min 0 min 133 W/m 19,3 km/h (3 Bft) 97,83 %
17.09.2022 12:46 14,8 C 15,0 C 11,1 C 71 % 1014,6 hPa 0,0 l/m 0 min 0 min 113 W/m 22,5 km/h (4 Bft) 95,74 %
17.09.2022 12:48 14,9 C 15,0 C 11,1 C 71 % 1014,6 hPa 0,0 l/m 0 min 0 min 136 W/m 12,9 km/h (3 Bft) 95,74 %
17.09.2022 12:50 15,1 C 15,0 C 11,1 C 72 % 1014,6 hPa 0,0 l/m 0 min 0 min 176 W/m 22,5 km/h (4 Bft) 95,74 %
17.09.2022 12:52 15,2 C 15,6 C 11,1 C 71 % 1014,5 hPa 0,0 l/m 0 min 0 min 246 W/m 16,1 km/h (3 Bft) 95,74 %
17.09.2022 12:54 15,2 C 15,6 C 11,1 C 70 % 1014,6 hPa 0,0 l/m 0 min 0 min 266 W/m 19,3 km/h (3 Bft) 95,74 %
17.09.2022 12:56 15,3 C 15,6 C 11,7 C 70 % 1014,5 hPa 0,0 l/m 0 min 0 min 296 W/m 25,7 km/h (4 Bft) 93,48 %
17.09.2022 12:58 15,3 C 15,6 C 11,7 C 70 % 1014,6 hPa 0,0 l/m 2 min 0 min 370 W/m 19,3 km/h (3 Bft) 95,74 %
17.09.2022 13:00 15,4 C 16,1 C 11,7 C 69 % 1014,6 hPa 0,0 l/m 2 min 0 min 377 W/m 29,0 km/h (5 Bft) 97,87 %
17.09.2022 13:02 15,4 C 15,6 C 11,7 C 70 % 1014,6 hPa 0,0 l/m 0 min 0 min 275 W/m 22,5 km/h (4 Bft) 93,62 %
17.09.2022 13:04 15,4 C 15,0 C 11,1 C 69 % 1014,6 hPa 0,0 l/m 0 min 2 min 191 W/m 25,7 km/h (4 Bft) 100,00 %
17.09.2022 13:06 15,3 C 15,0 C 11,1 C 71 % 1014,7 hPa 0,0 l/m 0 min 2 min 126 W/m 19,3 km/h (3 Bft) 97,87 %
17.09.2022 13:08 15,2 C 13,9 C 10,6 C 72 % 1014,8 hPa 0,0 l/m 0 min 2 min 86 W/m 35,4 km/h (5 Bft) 97,83 %
17.09.2022 13:10 14,8 C 13,3 C 9,4 C 75 % 1015,0 hPa 0,0 l/m 0 min 2 min 64 W/m 22,5 km/h (4 Bft) 97,87 %
17.09.2022 13:12 14,6 C 12,8 C 8,9 C 75 % 1015,1 hPa 0,2 l/m 0 min 2 min 55 W/m 48,3 km/h (6 Bft) 97,87 %
17.09.2022 13:14 14,1 C 11,7 C 7,8 C 77 % 1015,0 hPa 0,0 l/m 0 min 2 min 46 W/m 29,0 km/h (5 Bft) 95,74 %
17.09.2022 13:16 13,4 C 11,1 C 7,2 C 78 % 1015,1 hPa 0,2 l/m 0 min 2 min 48 W/m 22,5 km/h (4 Bft) 97,87 %
17.09.2022 13:18 12,9 C 11,1 C 6,7 C 81 % 1015,0 hPa 0,0 l/m 0 min 2 min 57 W/m 22,5 km/h (4 Bft) 97,87 %
17.09.2022 13:20 12,4 C 10,6 C 6,7 C 82 % 1015,0 hPa 0,0 l/m 0 min 2 min 77 W/m 19,3 km/h (3 Bft) 95,65 %
17.09.2022 13:22 12,1 C 10,6 C 6,7 C 83 % 1015,0 hPa 0,0 l/m 0 min 2 min 96 W/m 16,1 km/h (3 Bft) 95,74 %
17.09.2022 13:24 11,9 C 10,6 C 6,7 C 85 % 1014,9 hPa 0,0 l/m 0 min 2 min 126 W/m 19,3 km/h (3 Bft) 100,00 %
17.09.2022 13:26 11,7 C 11,1 C 6,7 C 85 % 1014,9 hPa 0,0 l/m 0 min 0 min 182 W/m 12,9 km/h (3 Bft) 100,00 %
17.09.2022 13:28 11,7 C 11,1 C 6,7 C 87 % 1014,9 hPa 0,0 l/m 0 min 0 min 235 W/m 12,9 km/h (3 Bft) 100,00 %
17.09.2022 13:30 11,7 C 11,7 C 7,2 C 87 % 1014,9 hPa 0,0 l/m 0 min 0 min 181 W/m 6,4 km/h (2 Bft) 100,00 %
17.09.2022 13:32 11,8 C 11,7 C 7,2 C 88 % 1014,8 hPa 0,0 l/m 0 min 0 min 183 W/m 9,7 km/h (2 Bft) 95,65 %
17.09.2022 13:34 11,9 C 11,7 C 7,2 C 89 % 1014,8 hPa 0,0 l/m 0 min 0 min 204 W/m 12,9 km/h (3 Bft) 95,74 %
17.09.2022 13:36 12,0 C 12,2 C 7,8 C 88 % 1014,8 hPa 0,0 l/m 0 min 0 min 285 W/m 16,1 km/h (3 Bft) 97,87 %
17.09.2022 13:38 12,1 C 12,2 C 7,8 C 89 % 1014,8 hPa 0,0 l/m 2 min 0 min 354 W/m 12,9 km/h (3 Bft) 95,74 %
17.09.2022 13:40 12,3 C 12,2 C 7,8 C 89 % 1014,9 hPa 0,0 l/m 2 min 0 min 628 W/m 22,5 km/h (4 Bft) 97,87 %
17.09.2022 13:42 12,5 C 12,8 C 8,3 C 89 % 1014,8 hPa 0,0 l/m 2 min 0 min 671 W/m 16,1 km/h (3 Bft) 97,87 %
17.09.2022 13:44 12,7 C 12,8 C 8,9 C 89 % 1014,8 hPa 0,0 l/m 2 min 0 min 664 W/m 12,9 km/h (3 Bft) 100,00 %
17.09.2022 13:46 12,8 C 13,3 C 8,9 C 88 % 1014,7 hPa 0,0 l/m 2 min 0 min 678 W/m 12,9 km/h (3 Bft) 97,87 %
17.09.2022 13:48 13,0 C 13,9 C 8,9 C 88 % 1014,7 hPa 0,0 l/m 2 min 0 min 699 W/m 12,9 km/h (3 Bft) 97,87 %
17.09.2022 13:50 13,2 C 13,9 C 9,4 C 87 % 1014,8 hPa 0,0 l/m 2 min 0 min 717 W/m 19,3 km/h (3 Bft) 97,87 %
17.09.2022 13:52 13,4 C 14,4 C 9,4 C 86 % 1014,8 hPa 0,0 l/m 2 min 0 min 733 W/m 25,7 km/h (4 Bft) 97,87 %
17.09.2022 13:54 13,6 C 15,0 C 9,4 C 85 % 1014,7 hPa 0,0 l/m 2 min 0 min 749 W/m 16,1 km/h (3 Bft) 97,87 %
17.09.2022 13:56 13,7 C 15,6 C 10,0 C 84 % 1014,7 hPa 0,0 l/m 2 min 0 min 744 W/m 19,3 km/h (3 Bft) 95,65 %
17.09.2022 13:58 13,8 C 16,1 C 10,0 C 83 % 1014,7 hPa 0,0 l/m 2 min 0 min 730 W/m 22,5 km/h (4 Bft) 97,87 %
17.09.2022 14:00 14,1 C 16,7 C 10,0 C 82 % 1014,6 hPa 0,0 l/m 2 min 0 min 731 W/m 16,1 km/h (3 Bft) 97,87 %
17.09.2022 14:02 14,3 C 18,9 C 10,0 C 82 % 1014,6 hPa 0,0 l/m 2 min 0 min 731 W/m 19,3 km/h (3 Bft) 97,87 %
17.09.2022 14:04 14,3 C 20,6 C 10,0 C 81 % 1014,5 hPa 0,0 l/m 2 min 0 min 738 W/m 19,3 km/h (3 Bft) 97,87 %
17.09.2022 14:06 14,6 C 21,1 C 10,6 C 81 % 1014,5 hPa 0,0 l/m 2 min 0 min 756 W/m 12,9 km/h (3 Bft) 93,62 %
17.09.2022 14:08 14,7 C 21,7 C 10,6 C 80 % 1014,5 hPa 0,0 l/m 2 min 0 min 754 W/m 29,0 km/h (5 Bft) 97,83 %
17.09.2022 14:10 14,8 C 21,1 C 10,6 C 79 % 1014,4 hPa 0,0 l/m 2 min 0 min 680 W/m 35,4 km/h (5 Bft) 95,74 %
17.09.2022 14:12 15,0 C 21,7 C 11,1 C 78 % 1014,3 hPa 0,0 l/m 2 min 0 min 691 W/m 19,3 km/h (3 Bft) 93,62 %
17.09.2022 14:14 15,2 C 22,2 C 11,1 C 78 % 1014,3 hPa 0,0 l/m 2 min 0 min 651 W/m 16,1 km/h (3 Bft) 97,87 %
17.09.2022 14:16 15,4 C 21,7 C 11,7 C 78 % 1014,3 hPa 0,0 l/m 2 min 0 min 649 W/m 19,3 km/h (3 Bft) 97,87 %
17.09.2022 14:18 15,6 C 20,6 C 11,7 C 77 % 1014,4 hPa 0,2 l/m 2 min 0 min 854 W/m 32,2 km/h (5 Bft) 97,87 %
17.09.2022 14:20 15,7 C 18,3 C 11,1 C 75 % 1014,5 hPa 0,0 l/m 2 min 0 min 674 W/m 25,7 km/h (4 Bft) 95,65 %
17.09.2022 14:22 15,4 C 14,4 C 8,9 C 74 % 1015,1 hPa 0,8 l/m 0 min 2 min 59 W/m 41,8 km/h (6 Bft) 100,00 %
17.09.2022 14:24 14,3 C 11,7 C 6,7 C 76 % 1014,9 hPa 0,6 l/m 0 min 2 min 38 W/m 19,3 km/h (3 Bft) 100,00 %
17.09.2022 14:26 13,7 C 11,1 C 6,7 C 79 % 1014,9 hPa 0,2 l/m 0 min 2 min 82 W/m 9,7 km/h (2 Bft) 97,87 %
17.09.2022 14:28 13,3 C 10,6 C 6,7 C 81 % 1014,9 hPa 0,0 l/m 0 min 2 min 152 W/m 9,7 km/h (2 Bft) 97,87 %
17.09.2022 14:30 12,9 C 10,6 C 6,7 C 83 % 1014,9 hPa 0,0 l/m 0 min 0 min 165 W/m 9,7 km/h (2 Bft) 95,74 %
17.09.2022 14:32 12,6 C 10,6 C 6,7 C 85 % 1014,9 hPa 0,0 l/m 0 min 0 min 140 W/m 12,9 km/h (3 Bft) 97,83 %
17.09.2022 14:34 12,2 C 10,6 C 6,7 C 86 % 1014,9 hPa 0,0 l/m 0 min 0 min 98 W/m 12,9 km/h (3 Bft) 97,87 %
17.09.2022 14:36 11,8 C 10,6 C 6,1 C 86 % 1014,9 hPa 0,0 l/m 0 min 0 min 81 W/m 12,9 km/h (3 Bft) 97,87 %
17.09.2022 14:38 11,8 C 11,7 C 6,7 C 88 % 1014,8 hPa 0,0 l/m 2 min 0 min 464 W/m 6,4 km/h (2 Bft) 95,74 %
17.09.2022 14:40 11,8 C 12,2 C 6,7 C 89 % 1014,8 hPa 0,0 l/m 2 min 0 min 719 W/m 9,7 km/h (2 Bft) 93,62 %
17.09.2022 14:42 11,9 C 12,8 C 7,2 C 90 % 1014,7 hPa 0,0 l/m 2 min 0 min 719 W/m 6,4 km/h (2 Bft) 97,87 %
17.09.2022 14:44 12,1 C 12,8 C 7,2 C 91 % 1014,7 hPa 0,0 l/m 2 min 0 min 424 W/m 12,9 km/h (3 Bft) 97,83 %
17.09.2022 14:46 12,1 C 12,2 C 7,2 C 91 % 1014,7 hPa 0,0 l/m 0 min 2 min 149 W/m 16,1 km/h (3 Bft) 97,87 %
17.09.2022 14:48 12,1 C 11,7 C 7,2 C 91 % 1014,7 hPa 0,0 l/m 0 min 0 min 123 W/m 16,1 km/h (3 Bft) 97,87 %
17.09.2022 14:50 12,0 C 11,7 C 7,2 C 91 % 1014,7 hPa 0,0 l/m 0 min 0 min 83 W/m 9,7 km/h (2 Bft) 97,87 %
17.09.2022 14:52 11,9 C 11,7 C 7,2 C 91 % 1014,7 hPa 0,0 l/m 0 min 0 min 69 W/m 6,4 km/h (2 Bft) 97,87 %
17.09.2022 14:54 11,9 C 11,7 C 7,2 C 91 % 1014,7 hPa 0,0 l/m 0 min 0 min 64 W/m 6,4 km/h (2 Bft) 97,83 %
17.09.2022 14:56 11,8 C 11,7 C 7,2 C 91 % 1014,6 hPa 0,0 l/m 0 min 0 min 113 W/m 9,7 km/h (2 Bft) 97,87 %
17.09.2022 14:58 11,8 C 12,2 C 7,2 C 92 % 1014,6 hPa 0,0 l/m 0 min 0 min 134 W/m 19,3 km/h (3 Bft) 97,87 %
17.09.2022 15:00 11,9 C 12,8 C 7,2 C 92 % 1014,5 hPa 0,0 l/m 2 min 0 min 373 W/m 9,7 km/h (2 Bft) 70,21 %
17.09.2022 15:02 12,1 C 12,8 C 7,2 C 92 % 1014,5 hPa 0,0 l/m 2 min 0 min 651 W/m 6,4 km/h (2 Bft) 82,93 %
17.09.2022 15:04 12,2 C 13,3 C 7,2 C 92 % 1014,5 hPa 0,0 l/m 2 min 0 min 647 W/m 12,9 km/h (3 Bft) 95,74 %
17.09.2022 15:06 12,3 C 13,3 C 7,2 C 92 % 1014,4 hPa 0,0 l/m 2 min 0 min 650 W/m 9,7 km/h (2 Bft) 100,00 %
17.09.2022 15:08 12,3 C 13,3 C 7,8 C 93 % 1014,4 hPa 0,0 l/m 2 min 0 min 651 W/m 12,9 km/h (3 Bft) 100,00 %
17.09.2022 15:10 12,6 C 13,3 C 7,8 C 92 % 1014,4 hPa 0,0 l/m 2 min 0 min 651 W/m 3,2 km/h (1 Bft) 100,00 %
17.09.2022 15:12 12,7 C 13,9 C 7,8 C 92 % 1014,3 hPa 0,0 l/m 2 min 0 min 650 W/m 6,4 km/h (2 Bft) 97,87 %
17.09.2022 15:14 12,8 C 13,9 C 7,8 C 93 % 1014,3 hPa 0,0 l/m 2 min 0 min 649 W/m 9,7 km/h (2 Bft) 100,00 %
17.09.2022 15:16 12,9 C 13,9 C 7,8 C 93 % 1014,2 hPa 0,0 l/m 2 min 0 min 644 W/m 6,4 km/h (2 Bft) 95,74 %
17.09.2022 15:18 13,1 C 14,4 C 7,8 C 92 % 1014,1 hPa 0,0 l/m 2 min 0 min 639 W/m 9,7 km/h (2 Bft) 97,83 %
17.09.2022 15:20 13,3 C 14,4 C 8,3 C 93 % 1014,1 hPa 0,0 l/m 2 min 0 min 638 W/m 6,4 km/h (2 Bft) 100,00 %
17.09.2022 15:22 13,4 C 14,4 C 7,8 C 92 % 1014,1 hPa 0,0 l/m 2 min 0 min 635 W/m 9,7 km/h (2 Bft) 100,00 %
17.09.2022 15:24 13,6 C 14,4 C 7,8 C 91 % 1014,1 hPa 0,0 l/m 2 min 0 min 632 W/m 16,1 km/h (3 Bft) 97,87 %
17.09.2022 15:26 13,7 C 14,4 C 7,8 C 90 % 1014,1 hPa 0,0 l/m 2 min 0 min 632 W/m 16,1 km/h (3 Bft) 100,00 %
17.09.2022 15:28 13,8 C 14,4 C 7,8 C 87 % 1014,0 hPa 0,0 l/m 2 min 0 min 633 W/m 12,9 km/h (3 Bft) 100,00 %
17.09.2022 15:30 13,9 C 15,0 C 7,8 C 86 % 1014,0 hPa 0,0 l/m 2 min 0 min 635 W/m 29,0 km/h (5 Bft) 100,00 %
17.09.2022 15:32 14,2 C 15,0 C 7,8 C 85 % 1014,0 hPa 0,0 l/m 2 min 0 min 658 W/m 12,9 km/h (3 Bft) 97,87 %
17.09.2022 15:34 14,3 C 15,0 C 8,3 C 84 % 1014,0 hPa 0,0 l/m 2 min 0 min 720 W/m 16,1 km/h (3 Bft) 97,87 %
17.09.2022 15:36 14,4 C 15,0 C 7,8 C 82 % 1014,0 hPa 0,0 l/m 2 min 0 min 786 W/m 22,5 km/h (4 Bft) 97,87 %
17.09.2022 15:38 14,5 C 15,6 C 7,8 C 80 % 1013,9 hPa 0,0 l/m 2 min 0 min 564 W/m 29,0 km/h (5 Bft) 97,87 %
17.09.2022 15:40 14,6 C 15,0 C 7,8 C 79 % 1014,0 hPa 0,0 l/m 2 min 0 min 346 W/m 32,2 km/h (5 Bft) 97,87 %
17.09.2022 15:42 14,5 C 14,4 C 7,8 C 78 % 1014,0 hPa 0,0 l/m 0 min 0 min 209 W/m 19,3 km/h (3 Bft) 93,48 %
17.09.2022 15:44 14,4 C 14,4 C 7,8 C 78 % 1014,0 hPa 0,0 l/m 0 min 0 min 161 W/m 22,5 km/h (4 Bft) 97,87 %
17.09.2022 15:46 14,3 C 14,4 C 7,8 C 78 % 1014,0 hPa 0,0 l/m 0 min 0 min 155 W/m 25,7 km/h (4 Bft) 97,87 %
17.09.2022 15:48 14,3 C 13,9 C 7,8 C 78 % 1014,0 hPa 0,0 l/m 0 min 0 min 174 W/m 35,4 km/h (5 Bft) 95,74 %
17.09.2022 15:50 14,3 C 13,9 C 7,8 C 77 % 1014,0 hPa 0,0 l/m 0 min 0 min 197 W/m 25,7 km/h (4 Bft) 97,87 %
17.09.2022 15:52 14,3 C 13,9 C 7,8 C 77 % 1014,0 hPa 0,0 l/m 0 min 0 min 158 W/m 22,5 km/h (4 Bft) 97,87 %
17.09.2022 15:54 14,3 C 13,9 C 7,8 C 76 % 1014,0 hPa 0,0 l/m 0 min 0 min 144 W/m 48,3 km/h (6 Bft) 97,83 %
17.09.2022 15:56 14,3 C 13,9 C 7,8 C 77 % 1014,0 hPa 0,0 l/m 0 min 0 min 156 W/m 22,5 km/h (4 Bft) 97,87 %
17.09.2022 15:58 14,2 C 13,9 C 7,8 C 77 % 1014,1 hPa 0,0 l/m 0 min 0 min 162 W/m 19,3 km/h (3 Bft) 97,87 %
17.09.2022 16:00 14,2 C 13,9 C 7,8 C 77 % 1014,1 hPa 0,0 l/m 0 min 0 min 156 W/m 29,0 km/h (5 Bft) 95,74 %
17.09.2022 16:02 14,1 C 13,9 C 7,2 C 76 % 1014,0 hPa 0,0 l/m 0 min 0 min 142 W/m 19,3 km/h (3 Bft) 97,87 %
17.09.2022 16:04 13,9 C 13,9 C 7,2 C 74 % 1014,1 hPa 0,2 l/m 0 min 0 min 113 W/m 35,4 km/h (5 Bft) 97,87 %
17.09.2022 16:06 13,9 C 13,9 C 7,2 C 74 % 1014,2 hPa 0,0 l/m 0 min 0 min 107 W/m 25,7 km/h (4 Bft) 97,83 %
17.09.2022 16:08 13,9 C 13,3 C 7,2 C 74 % 1014,3 hPa 0,0 l/m 0 min 0 min 84 W/m 22,5 km/h (4 Bft) 97,87 %
17.09.2022 16:10 13,9 C 13,3 C 7,2 C 74 % 1014,3 hPa 0,0 l/m 0 min 0 min 75 W/m 25,7 km/h (4 Bft) 95,74 %
17.09.2022 16:12 13,9 C 13,9 C 7,2 C 75 % 1014,3 hPa 0,0 l/m 0 min 0 min 191 W/m 19,3 km/h (3 Bft) 95,74 %
17.09.2022 16:14 14,0 C 14,4 C 7,2 C 75 % 1014,3 hPa 0,0 l/m 2 min 0 min 632 W/m 32,2 km/h (5 Bft) 93,62 %
17.09.2022 16:16 14,1 C 14,4 C 7,8 C 75 % 1014,3 hPa 0,0 l/m 2 min 0 min 605 W/m 32,2 km/h (5 Bft) 93,62 %
17.09.2022 16:18 14,3 C 15,0 C 7,8 C 75 % 1014,2 hPa 0,0 l/m 2 min 0 min 626 W/m 16,1 km/h (3 Bft) 95,65 %
17.09.2022 16:20 14,3 C 15,0 C 7,8 C 75 % 1014,2 hPa 0,0 l/m 2 min 0 min 626 W/m 22,5 km/h (4 Bft) 93,62 %
17.09.2022 16:22 14,4 C 15,0 C 8,3 C 75 % 1014,3 hPa 0,0 l/m 2 min 0 min 646 W/m 16,1 km/h (3 Bft) 93,62 %
17.09.2022 16:24 14,6 C 15,6 C 9,4 C 75 % 1014,4 hPa 0,0 l/m 2 min 0 min 670 W/m 12,9 km/h (3 Bft) 95,74 %
17.09.2022 16:26 14,8 C 15,6 C 10,6 C 75 % 1014,3 hPa 0,0 l/m 2 min 0 min 659 W/m 19,3 km/h (3 Bft) 95,74 %
17.09.2022 16:28 15,0 C 16,1 C 10,6 C 76 % 1014,4 hPa 0,0 l/m 2 min 0 min 642 W/m 22,5 km/h (4 Bft) 95,74 %
17.09.2022 16:30 15,1 C 15,6 C 10,6 C 76 % 1014,4 hPa 0,0 l/m 2 min 0 min 480 W/m 29,0 km/h (5 Bft) 93,88 %
17.09.2022 16:32 15,1 C 15,6 C 10,6 C 76 % 1014,4 hPa 0,0 l/m 2 min 0 min 397 W/m 32,2 km/h (5 Bft) 93,62 %
17.09.2022 16:34 15,0 C 15,0 C 10,6 C 75 % 1014,4 hPa 0,0 l/m 2 min 0 min 447 W/m 29,0 km/h (5 Bft) 95,74 %
17.09.2022 16:36 14,9 C 15,0 C 10,6 C 75 % 1014,3 hPa 0,0 l/m 2 min 0 min 487 W/m 25,7 km/h (4 Bft) 95,74 %
17.09.2022 16:38 14,9 C 15,0 C 10,6 C 73 % 1014,4 hPa 0,0 l/m 2 min 0 min 512 W/m 25,7 km/h (4 Bft) 95,74 %
17.09.2022 16:40 14,8 C 15,0 C 10,6 C 73 % 1014,4 hPa 0,0 l/m 2 min 0 min 475 W/m 25,7 km/h (4 Bft) 97,87 %
17.09.2022 16:42 14,8 C 15,0 C 10,6 C 72 % 1014,4 hPa 0,0 l/m 2 min 0 min 464 W/m 25,7 km/h (4 Bft) 95,65 %
17.09.2022 16:44 14,9 C 15,6 C 10,6 C 72 % 1014,4 hPa 0,0 l/m 2 min 0 min 458 W/m 22,5 km/h (4 Bft) 95,74 %
17.09.2022 16:46 15,0 C 15,6 C 10,6 C 73 % 1014,4 hPa 0,0 l/m 2 min 0 min 452 W/m 19,3 km/h (3 Bft) 97,87 %
17.09.2022 16:48 15,1 C 15,6 C 10,6 C 72 % 1014,3 hPa 0,0 l/m 2 min 0 min 446 W/m 22,5 km/h (4 Bft) 97,87 %
17.09.2022 16:50 15,2 C 16,1 C 10,6 C 72 % 1014,4 hPa 0,0 l/m 2 min 0 min 449 W/m 19,3 km/h (3 Bft) 97,87 %
17.09.2022 16:52 15,2 C 16,7 C 10,6 C 72 % 1014,3 hPa 0,0 l/m 2 min 0 min 429 W/m 19,3 km/h (3 Bft) 97,83 %
17.09.2022 16:54 15,2 C 16,7 C 10,6 C 72 % 1014,3 hPa 0,0 l/m 2 min 0 min 437 W/m 22,5 km/h (4 Bft) 100,00 %
17.09.2022 16:56 15,2 C 16,7 C 10,6 C 72 % 1014,4 hPa 0,0 l/m 2 min 0 min 434 W/m 22,5 km/h (4 Bft) 100,00 %
17.09.2022 16:58 15,2 C 16,1 C 10,6 C 72 % 1014,4 hPa 0,0 l/m 2 min 0 min 415 W/m 12,9 km/h (3 Bft) 97,87 %
17.09.2022 17:00 15,1 C 15,6 C 10,0 C 72 % 1014,3 hPa 0,0 l/m 0 min 0 min 68 W/m 22,5 km/h (4 Bft) 97,87 %
17.09.2022 17:02 14,9 C 14,4 C 10,0 C 72 % 1014,6 hPa 0,0 l/m 0 min 0 min 77 W/m 22,5 km/h (4 Bft) 97,87 %
17.09.2022 17:04 14,8 C 13,9 C 10,0 C 72 % 1014,4 hPa 0,0 l/m 0 min 0 min 70 W/m 32,2 km/h (5 Bft) 97,83 %
17.09.2022 17:06 14,7 C 13,9 C 10,0 C 72 % 1014,3 hPa 0,0 l/m 0 min 0 min 51 W/m 35,4 km/h (5 Bft) 97,87 %
17.09.2022 17:08 14,5 C 13,9 C 10,0 C 72 % 1014,4 hPa 0,0 l/m 0 min 0 min 54 W/m 22,5 km/h (4 Bft) 97,87 %
17.09.2022 17:10 14,3 C 13,3 C 9,4 C 73 % 1014,4 hPa 0,0 l/m 0 min 0 min 86 W/m 25,7 km/h (4 Bft) 95,74 %
17.09.2022 17:12 14,3 C 13,9 C 10,0 C 73 % 1014,3 hPa 0,0 l/m 0 min 0 min 111 W/m 29,0 km/h (5 Bft) 97,87 %
17.09.2022 17:14 14,3 C 13,9 C 10,0 C 74 % 1014,4 hPa 0,0 l/m 0 min 0 min 114 W/m 25,7 km/h (4 Bft) 97,87 %
17.09.2022 17:16 14,3 C 13,9 C 10,0 C 74 % 1014,4 hPa 0,0 l/m 0 min 0 min 113 W/m 19,3 km/h (3 Bft) 95,65 %
17.09.2022 17:18 14,3 C 15,6 C 10,0 C 74 % 1014,5 hPa 0,0 l/m 2 min 0 min 275 W/m 25,7 km/h (4 Bft) 97,87 %
17.09.2022 17:20 14,3 C 16,1 C 10,0 C 74 % 1014,5 hPa 0,0 l/m 2 min 0 min 364 W/m 32,2 km/h (5 Bft) 95,74 %
17.09.2022 17:22 14,3 C 16,7 C 10,0 C 74 % 1014,5 hPa 0,0 l/m 2 min 0 min 360 W/m 29,0 km/h (5 Bft) 97,87 %
17.09.2022 17:24 14,4 C 17,2 C 10,0 C 73 % 1014,5 hPa 0,0 l/m 2 min 0 min 350 W/m 19,3 km/h (3 Bft) 97,87 %
17.09.2022 17:26 14,5 C 17,2 C 10,0 C 74 % 1014,5 hPa 0,0 l/m 2 min 0 min 347 W/m 22,5 km/h (4 Bft) 95,74 %
17.09.2022 17:28 14,6 C 17,2 C 10,0 C 73 % 1014,5 hPa 0,0 l/m 2 min 0 min 338 W/m 32,2 km/h (5 Bft) 97,83 %
17.09.2022 17:30 14,6 C 17,2 C 10,0 C 72 % 1014,5 hPa 0,0 l/m 2 min 0 min 331 W/m 32,2 km/h (5 Bft) 97,87 %
17.09.2022 17:32 14,7 C 17,2 C 10,0 C 72 % 1014,5 hPa 0,0 l/m 2 min 0 min 327 W/m 22,5 km/h (4 Bft) 97,87 %
17.09.2022 17:34 14,7 C 17,2 C 10,6 C 73 % 1014,5 hPa 0,0 l/m 2 min 0 min 326 W/m 19,3 km/h (3 Bft) 95,74 %
17.09.2022 17:36 14,8 C 17,2 C 10,6 C 72 % 1014,5 hPa 0,0 l/m 2 min 0 min 321 W/m 29,0 km/h (5 Bft) 95,74 %
17.09.2022 17:38 14,8 C 17,2 C 10,0 C 73 % 1014,5 hPa 0,0 l/m 2 min 0 min 309 W/m 19,3 km/h (3 Bft) 97,87 %
17.09.2022 17:40 14,8 C 15,6 C 10,0 C 72 % 1014,5 hPa 0,0 l/m 0 min 0 min 99 W/m 32,2 km/h (5 Bft) 95,65 %
17.09.2022 17:42 14,7 C 15,6 C 10,0 C 71 % 1014,6 hPa 0,0 l/m 0 min 0 min 107 W/m 22,5 km/h (4 Bft) 97,87 %
17.09.2022 17:44 14,7 C 15,6 C 10,0 C 72 % 1014,5 hPa 0,0 l/m 2 min 0 min 280 W/m 29,0 km/h (5 Bft) 100,00 %
17.09.2022 17:46 14,7 C 15,0 C 10,0 C 72 % 1014,6 hPa 0,0 l/m 0 min 0 min 104 W/m 29,0 km/h (5 Bft) 100,00 %
17.09.2022 17:48 14,7 C 14,4 C 10,0 C 72 % 1014,5 hPa 0,0 l/m 2 min 0 min 153 W/m 25,7 km/h (4 Bft) 100,00 %
17.09.2022 17:50 14,6 C 14,4 C 10,0 C 72 % 1014,5 hPa 0,0 l/m 2 min 0 min 161 W/m 19,3 km/h (3 Bft) 100,00 %
17.09.2022 17:52 14,6 C 14,4 C 10,0 C 72 % 1014,5 hPa 0,0 l/m 0 min 0 min 132 W/m 35,4 km/h (5 Bft) 100,00 %
17.09.2022 17:54 14,6 C 14,4 C 10,0 C 72 % 1014,6 hPa 0,0 l/m 0 min 0 min 131 W/m 25,7 km/h (4 Bft) 100,00 %
17.09.2022 17:56 14,6 C 13,9 C 10,0 C 71 % 1014,6 hPa 0,0 l/m 0 min 0 min 107 W/m 35,4 km/h (5 Bft) 100,00 %
17.09.2022 17:58 14,4 C 13,9 C 10,0 C 71 % 1014,7 hPa 0,0 l/m 0 min 0 min 87 W/m 41,8 km/h (6 Bft) 100,00 %
17.09.2022 18:00 14,4 C 13,9 C 10,0 C 71 % 1014,6 hPa 0,0 l/m 0 min 0 min 83 W/m 22,5 km/h (4 Bft) 100,00 %
17.09.2022 18:02 14,3 C 13,9 C 10,0 C 71 % 1014,6 hPa 0,0 l/m 0 min 0 min 79 W/m 19,3 km/h (3 Bft) 100,00 %
17.09.2022 18:04 14,3 C 13,9 C 10,0 C 71 % 1014,7 hPa 0,0 l/m 0 min 0 min 75 W/m 25,7 km/h (4 Bft) 100,00 %
17.09.2022 18:08 14,3 C 13,9 C 10,0 C 71 % 1014,7 hPa 0,0 l/m 0 min 0 min 90 W/m 35,4 km/h (5 Bft) 100,00 %
17.09.2022 18:10 14,3 C 13,9 C 10,0 C 71 % 1014,6 hPa 0,0 l/m 0 min 0 min 73 W/m 29,0 km/h (5 Bft) 100,00 %
17.09.2022 18:12 14,3 C 13,9 C 10,0 C 72 % 1014,6 hPa 0,0 l/m 0 min 0 min 82 W/m 19,3 km/h (3 Bft) 100,00 %
17.09.2022 18:14 14,3 C 13,9 C 10,0 C 72 % 1014,7 hPa 0,0 l/m 0 min 0 min 85 W/m 16,1 km/h (3 Bft) 100,00 %
17.09.2022 18:16 14,3 C 13,9 C 10,0 C 72 % 1014,8 hPa 0,0 l/m 0 min 0 min 71 W/m 32,2 km/h (5 Bft) 100,00 %
17.09.2022 18:18 14,3 C 13,9 C 10,0 C 72 % 1014,8 hPa 0,0 l/m 0 min 0 min 86 W/m 12,9 km/h (3 Bft) 100,00 %
17.09.2022 18:20 14,3 C 13,9 C 10,0 C 72 % 1014,7 hPa 0,0 l/m 0 min 0 min 68 W/m 22,5 km/h (4 Bft) 100,00 %
17.09.2022 18:22 14,3 C 13,9 C 10,0 C 72 % 1014,8 hPa 0,0 l/m 2 min 0 min 114 W/m 22,5 km/h (4 Bft) 100,00 %
17.09.2022 18:24 14,3 C 13,9 C 10,0 C 71 % 1014,8 hPa 0,0 l/m 0 min 0 min 78 W/m 25,7 km/h (4 Bft) 100,00 %
17.09.2022 18:26 14,2 C 13,9 C 10,0 C 71 % 1014,7 hPa 0,0 l/m 0 min 0 min 52 W/m 35,4 km/h (5 Bft) 100,00 %
17.09.2022 18:28 14,2 C 13,9 C 10,0 C 70 % 1014,8 hPa 0,0 l/m 0 min 0 min 89 W/m 29,0 km/h (5 Bft) 100,00 %
17.09.2022 18:30 14,2 C 14,4 C 10,0 C 70 % 1014,7 hPa 0,0 l/m 2 min 0 min 113 W/m 16,1 km/h (3 Bft) 100,00 %
17.09.2022 18:32 14,2 C 14,4 C 10,0 C 70 % 1014,8 hPa 0,0 l/m 2 min 0 min 111 W/m 22,5 km/h (4 Bft) 100,00 %
17.09.2022 18:34 14,2 C 14,4 C 10,0 C 70 % 1014,8 hPa 0,0 l/m 2 min 0 min 107 W/m 9,7 km/h (2 Bft) 97,87 %
17.09.2022 18:36 14,2 C 13,9 C 10,0 C 70 % 1014,8 hPa 0,0 l/m 0 min 0 min 74 W/m 35,4 km/h (5 Bft) 97,87 %
17.09.2022 18:38 14,2 C 13,9 C 10,0 C 69 % 1014,9 hPa 0,0 l/m 0 min 0 min 45 W/m 25,7 km/h (4 Bft) 95,74 %
17.09.2022 18:40 14,2 C 13,9 C 9,4 C 70 % 1014,8 hPa 0,0 l/m 0 min 0 min 61 W/m 16,1 km/h (3 Bft) 95,74 %
17.09.2022 18:42 14,2 C 13,3 C 9,4 C 69 % 1014,8 hPa 0,0 l/m 0 min 0 min 33 W/m 16,1 km/h (3 Bft) 97,87 %
17.09.2022 18:44 14,1 C 13,3 C 9,4 C 69 % 1014,8 hPa 0,0 l/m 0 min 0 min 32 W/m 32,2 km/h (5 Bft) 97,83 %
17.09.2022 18:46 14,1 C 13,3 C 9,4 C 69 % 1014,8 hPa 0,0 l/m 0 min 0 min 46 W/m 25,7 km/h (4 Bft) 95,74 %
17.09.2022 18:48 14,1 C 13,3 C 9,4 C 69 % 1014,9 hPa 0,0 l/m 0 min 0 min 50 W/m 29,0 km/h (5 Bft) 93,62 %
17.09.2022 18:50 14,0 C 13,3 C 9,4 C 69 % 1014,8 hPa 0,0 l/m 0 min 0 min 42 W/m 22,5 km/h (4 Bft) 97,87 %
17.09.2022 18:52 13,9 C 13,3 C 9,4 C 69 % 1014,9 hPa 0,0 l/m 0 min 0 min 42 W/m 16,1 km/h (3 Bft) 95,74 %
17.09.2022 18:54 13,9 C 12,8 C 9,4 C 69 % 1014,9 hPa 0,0 l/m 0 min 0 min 27 W/m 16,1 km/h (3 Bft) 97,83 %
17.09.2022 18:56 13,8 C 12,8 C 9,4 C 70 % 1014,9 hPa 0,0 l/m 0 min 0 min 29 W/m 16,1 km/h (3 Bft) 95,74 %
17.09.2022 18:58 13,8 C 12,8 C 8,9 C 70 % 1014,9 hPa 0,0 l/m 0 min 0 min 25 W/m 12,9 km/h (3 Bft) 95,74 %
17.09.2022 19:00 13,7 C 12,8 C 8,9 C 70 % 1014,9 hPa 0,0 l/m 0 min 0 min 29 W/m 22,5 km/h (4 Bft) 94,29 %
17.09.2022 19:02 13,7 C 12,8 C 8,9 C 71 % 1014,9 hPa 0,0 l/m 0 min 0 min 28 W/m 19,3 km/h (3 Bft) 95,74 %
17.09.2022 19:04 13,6 C 12,8 C 8,9 C 71 % 1014,9 hPa 0,0 l/m 0 min 0 min 27 W/m 19,3 km/h (3 Bft) 93,62 %
17.09.2022 19:06 13,6 C 12,8 C 8,9 C 71 % 1014,9 hPa 0,0 l/m 0 min 0 min 24 W/m 19,3 km/h (3 Bft) 93,10 %
17.09.2022 19:08 13,6 C 12,8 C 8,9 C 71 % 1014,8 hPa 0,0 l/m 0 min 0 min 23 W/m 16,1 km/h (3 Bft) 100,00 %
17.09.2022 19:10 13,6 C 12,8 C 8,9 C 72 % 1014,9 hPa 0,0 l/m 0 min 0 min 22 W/m 9,7 km/h (2 Bft) 93,48 %
17.09.2022 19:12 13,5 C 12,8 C 8,9 C 72 % 1014,9 hPa 0,0 l/m 0 min 0 min 19 W/m 9,7 km/h (2 Bft) 95,74 %
17.09.2022 19:14 13,5 C 12,8 C 8,9 C 72 % 1014,9 hPa 0,0 l/m 0 min 0 min 19 W/m 16,1 km/h (3 Bft) 93,62 %
17.09.2022 19:16 13,4 C 12,8 C 8,9 C 72 % 1014,9 hPa 0,0 l/m 0 min 0 min 20 W/m 9,7 km/h (2 Bft) 93,62 %
17.09.2022 19:18 13,4 C 12,8 C 8,9 C 72 % 1014,9 hPa 0,0 l/m 0 min 0 min 19 W/m 19,3 km/h (3 Bft) 91,49 %
17.09.2022 19:20 13,4 C 12,8 C 8,9 C 72 % 1015,0 hPa 0,0 l/m 0 min 0 min 18 W/m 12,9 km/h (3 Bft) 93,62 %
17.09.2022 19:22 13,4 C 12,8 C 8,9 C 72 % 1015,0 hPa 0,0 l/m 0 min 0 min 14 W/m 9,7 km/h (2 Bft) 89,13 %
17.09.2022 19:24 13,4 C 12,2 C 8,9 C 73 % 1015,0 hPa 0,0 l/m 0 min 0 min 11 W/m 0,0 km/h (0 Bft) 95,74 %
17.09.2022 19:26 13,4 C 12,2 C 8,9 C 73 % 1015,0 hPa 0,0 l/m 0 min 0 min 9 W/m 3,2 km/h (1 Bft) 93,62 %
17.09.2022 19:28 13,3 C 12,2 C 8,9 C 73 % 1015,0 hPa 0,0 l/m 0 min 0 min 7 W/m 0,0 km/h (0 Bft) 93,62 %
17.09.2022 19:30 13,3 C 12,2 C 8,9 C 73 % 1015,1 hPa 0,0 l/m 0 min 0 min 6 W/m 0,0 km/h (0 Bft) 95,74 %
17.09.2022 19:32 13,3 C 12,2 C 8,9 C 74 % 1015,0 hPa 0,0 l/m 0 min 0 min 5 W/m 0,0 km/h (0 Bft) 93,62 %
17.09.2022 19:34 13,3 C 12,2 C 8,9 C 74 % 1015,1 hPa 0,0 l/m 0 min 0 min 3 W/m 0,0 km/h (0 Bft) 95,65 %
17.09.2022 19:36 13,3 C 12,2 C 8,9 C 74 % 1015,1 hPa 0,0 l/m 0 min 0 min 0 W/m 0,0 km/h (0 Bft) 91,53 %
17.09.2022 19:38 13,3 C 12,2 C 8,9 C 75 % 1015,1 hPa 0,0 l/m 0 min 0 min 0 W/m 0,0 km/h (0 Bft) 97,14 %
17.09.2022 19:40 13,2 C 12,2 C 8,9 C 75 % 1015,1 hPa 0,0 l/m 0 min 0 min 0 W/m 0,0 km/h (0 Bft) 95,74 %
17.09.2022 19:42 13,2 C 12,2 C 8,9 C 76 % 1015,1 hPa 0,0 l/m 0 min 0 min 0 W/m 0,0 km/h (0 Bft) 93,62 %
17.09.2022 19:44 13,2 C 12,2 C 8,9 C 76 % 1015,1 hPa 0,0 l/m 0 min 0 min 0 W/m 0,0 km/h (0 Bft) 95,74 %
17.09.2022 19:46 13,2 C 12,2 C 8,9 C 76 % 1015,2 hPa 0,0 l/m 0 min 0 min 0 W/m 0,0 km/h (0 Bft) 95,65 %
17.09.2022 19:48 13,2 C 12,2 C 8,9 C 76 % 1015,2 hPa 0,0 l/m 0 min 0 min 0 W/m 0,0 km/h (0 Bft) 97,87 %
17.09.2022 19:50 13,1 C 12,2 C 8,9 C 76 % 1015,3 hPa 0,0 l/m 0 min 0 min 0 W/m 0,0 km/h (0 Bft) 56,52 %
17.09.2022 19:52 13,2 C 12,2 C 8,3 C 77 % 1015,3 hPa 0,0 l/m 0 min 2 min 0 W/m 0,0 km/h (0 Bft) 97,50 %
17.09.2022 19:54 13,2 C 12,2 C 8,3 C 77 % 1015,3 hPa 0,0 l/m 0 min 2 min 0 W/m 0,0 km/h (0 Bft) 97,87 %
17.09.2022 19:56 13,1 C 12,2 C 8,3 C 78 % 1015,3 hPa 0,0 l/m 0 min 2 min 0 W/m 0,0 km/h (0 Bft) 100,00 %
17.09.2022 19:58 13,1 C 11,7 C 8,3 C 79 % 1015,2 hPa 0,0 l/m 0 min 0 min 0 W/m 0,0 km/h (0 Bft) 100,00 %
17.09.2022 20:00 13,1 C 11,7 C 7,8 C 79 % 1015,3 hPa 0,0 l/m 0 min 0 min 0 W/m 3,2 km/h (1 Bft) 100,00 %
17.09.2022 20:02 13,1 C 11,7 C 7,8 C 79 % 1015,3 hPa 0,0 l/m 0 min 0 min 0 W/m 0,0 km/h (0 Bft) 100,00 %
17.09.2022 20:04 13,0 C 11,7 C 7,8 C 79 % 1015,2 hPa 0,0 l/m 0 min 0 min 0 W/m 0,0 km/h (0 Bft) 100,00 %
17.09.2022 20:06 12,9 C 11,7 C 8,3 C 80 % 1015,2 hPa 0,0 l/m 0 min 0 min 0 W/m 0,0 km/h (0 Bft) 100,00 %
17.09.2022 20:08 12,9 C 11,7 C 8,3 C 80 % 1015,3 hPa 0,0 l/m 0 min 0 min 0 W/m 0,0 km/h (0 Bft) 100,00 %
17.09.2022 20:10 12,8 C 11,7 C 8,3 C 80 % 1015,3 hPa 0,0 l/m 0 min 0 min 0 W/m 0,0 km/h (0 Bft) 100,00 %
17.09.2022 20:12 12,8 C 11,7 C 8,3 C 80 % 1015,3 hPa 0,0 l/m 0 min 0 min 0 W/m 0,0 km/h (0 Bft) 100,00 %
17.09.2022 20:14 12,8 C 11,7 C 8,3 C 80 % 1015,4 hPa 0,0 l/m 0 min 0 min 0 W/m 0,0 km/h (0 Bft) 100,00 %
17.09.2022 20:16 12,7 C 11,7 C 8,3 C 81 % 1015,3 hPa 0,0 l/m 0 min 0 min 0 W/m 0,0 km/h (0 Bft) 100,00 %
17.09.2022 20:18 12,7 C 11,7 C 7,8 C 81 % 1015,3 hPa 0,0 l/m 0 min 0 min 0 W/m 0,0 km/h (0 Bft) 100,00 %
17.09.2022 20:20 12,7 C 11,7 C 7,8 C 81 % 1015,3 hPa 0,0 l/m 0 min 0 min 0 W/m 0,0 km/h (0 Bft) 100,00 %
17.09.2022 20:22 12,7 C 11,7 C 7,8 C 82 % 1015,3 hPa 0,0 l/m 0 min 0 min 0 W/m 0,0 km/h (0 Bft) 100,00 %
17.09.2022 20:24 12,6 C 11,7 C 7,8 C 82 % 1015,3 hPa 0,0 l/m 0 min 0 min 0 W/m 0,0 km/h (0 Bft) 100,00 %
17.09.2022 20:26 12,6 C 11,7 C 7,8 C 82 % 1015,3 hPa 0,0 l/m 0 min 0 min 0 W/m 0,0 km/h (0 Bft) 100,00 %
17.09.2022 20:28 12,6 C 11,7 C 7,8 C 82 % 1015,3 hPa 0,0 l/m 0 min 0 min 0 W/m 0,0 km/h (0 Bft) 100,00 %
17.09.2022 20:30 12,6 C 11,7 C 7,8 C 82 % 1015,4 hPa 0,0 l/m 0 min 0 min 0 W/m 0,0 km/h (0 Bft) 100,00 %
17.09.2022 20:32 12,6 C 11,7 C 7,8 C 83 % 1015,4 hPa 0,0 l/m 0 min 0 min 0 W/m 0,0 km/h (0 Bft) 97,87 %
17.09.2022 20:34 12,6 C 11,7 C 7,8 C 83 % 1015,4 hPa 0,0 l/m 0 min 0 min 0 W/m 0,0 km/h (0 Bft) 97,83 %
17.09.2022 20:36 12,6 C 11,7 C 8,3 C 83 % 1015,5 hPa 0,0 l/m 0 min 0 min 0 W/m 0,0 km/h (0 Bft) 98,31 %
17.09.2022 20:38 12,6 C 11,7 C 8,3 C 83 % 1015,5 hPa 0,0 l/m 0 min 0 min 0 W/m 0,0 km/h (0 Bft) 100,00 %
17.09.2022 20:40 12,6 C 11,7 C 8,3 C 83 % 1015,5 hPa 0,0 l/m 0 min 0 min 0 W/m 0,0 km/h (0 Bft) 97,87 %
17.09.2022 20:42 12,6 C 11,7 C 8,3 C 83 % 1015,5 hPa 0,0 l/m 0 min 0 min 0 W/m 0,0 km/h (0 Bft) 100,00 %
17.09.2022 20:44 12,6 C 11,7 C 8,3 C 83 % 1015,5 hPa 0,0 l/m 0 min 0 min 0 W/m 0,0 km/h (0 Bft) 100,00 %
17.09.2022 20:46 12,6 C 11,7 C 8,3 C 83 % 1015,5 hPa 0,0 l/m 0 min 0 min 0 W/m 0,0 km/h (0 Bft) 100,00 %
17.09.2022 20:48 12,6 C 11,7 C 8,3 C 83 % 1015,5 hPa 0,0 l/m 0 min 0 min 0 W/m 3,2 km/h (1 Bft) 100,00 %
17.09.2022 20:50 12,6 C 11,7 C 8,3 C 82 % 1015,5 hPa 0,0 l/m 0 min 0 min 0 W/m 0,0 km/h (0 Bft) 100,00 %
17.09.2022 20:52 12,6 C 12,2 C 8,3 C 82 % 1015,5 hPa 0,0 l/m 0 min 0 min 0 W/m 0,0 km/h (0 Bft) 100,00 %
17.09.2022 20:54 12,6 C 12,2 C 8,3 C 82 % 1015,6 hPa 0,0 l/m 0 min 0 min 0 W/m 9,7 km/h (2 Bft) 100,00 %
17.09.2022 20:56 12,7 C 12,2 C 8,3 C 81 % 1015,5 hPa 0,0 l/m 0 min 0 min 0 W/m 16,1 km/h (3 Bft) 97,83 %
17.09.2022 20:58 12,7 C 12,2 C 8,3 C 81 % 1015,6 hPa 0,0 l/m 0 min 0 min 0 W/m 16,1 km/h (3 Bft) 100,00 %
17.09.2022 21:00 12,7 C 12,2 C 8,9 C 80 % 1015,6 hPa 0,0 l/m 0 min 0 min 0 W/m 19,3 km/h (3 Bft) 100,00 %
17.09.2022 21:02 12,8 C 12,8 C 8,9 C 79 % 1015,6 hPa 0,0 l/m 0 min 0 min 0 W/m 12,9 km/h (3 Bft) 100,00 %
17.09.2022 21:04 12,8 C 12,8 C 8,9 C 78 % 1015,6 hPa 0,0 l/m 0 min 0 min 0 W/m 12,9 km/h (3 Bft) 97,87 %
17.09.2022 21:06 12,9 C 12,8 C 8,9 C 78 % 1015,7 hPa 0,0 l/m 0 min 0 min 0 W/m 16,1 km/h (3 Bft) 97,87 %
17.09.2022 21:08 12,9 C 12,8 C 8,9 C 77 % 1015,7 hPa 0,0 l/m 0 min 0 min 0 W/m 6,4 km/h (2 Bft) 97,87 %
17.09.2022 21:10 13,0 C 12,8 C 8,9 C 77 % 1015,7 hPa 0,0 l/m 0 min 0 min 0 W/m 12,9 km/h (3 Bft) 97,83 %
17.09.2022 21:12 13,0 C 12,8 C 8,9 C 76 % 1015,7 hPa 0,0 l/m 0 min 0 min 0 W/m 19,3 km/h (3 Bft) 97,87 %
17.09.2022 21:14 13,0 C 12,8 C 8,9 C 76 % 1015,7 hPa 0,0 l/m 0 min 0 min 0 W/m 12,9 km/h (3 Bft) 95,74 %
17.09.2022 21:16 13,1 C 12,2 C 8,9 C 76 % 1015,6 hPa 0,0 l/m 0 min 0 min 0 W/m 19,3 km/h (3 Bft) 95,74 %
17.09.2022 21:18 13,1 C 12,2 C 8,9 C 75 % 1015,7 hPa 0,0 l/m 0 min 0 min 0 W/m 19,3 km/h (3 Bft) 97,87 %
17.09.2022 21:20 13,1 C 12,2 C 8,9 C 75 % 1015,7 hPa 0,0 l/m 0 min 0 min 0 W/m 22,5 km/h (4 Bft) 97,87 %
17.09.2022 21:22 13,0 C 12,2 C 8,9 C 75 % 1015,7 hPa 0,0 l/m 0 min 0 min 0 W/m 16,1 km/h (3 Bft) 95,65 %
17.09.2022 21:24 13,0 C 12,2 C 8,9 C 75 % 1015,7 hPa 0,0 l/m 0 min 0 min 0 W/m 16,1 km/h (3 Bft) 97,87 %
17.09.2022 21:26 13,0 C 12,2 C 8,9 C 75 % 1015,8 hPa 0,0 l/m 0 min 0 min 0 W/m 19,3 km/h (3 Bft) 95,74 %
17.09.2022 21:28 13,0 C 12,2 C 8,9 C 75 % 1015,7 hPa 0,0 l/m 0 min 0 min 0 W/m 12,9 km/h (3 Bft) 100,00 %
17.09.2022 21:30 13,0 C 12,2 C 8,9 C 75 % 1015,7 hPa 0,0 l/m 0 min 0 min 0 W/m 16,1 km/h (3 Bft) 95,74 %
17.09.2022 21:32 13,0 C 12,2 C 8,3 C 75 % 1015,7 hPa 0,0 l/m 0 min 0 min 0 W/m 19,3 km/h (3 Bft) 93,62 %
17.09.2022 21:34 13,0 C 12,2 C 8,3 C 75 % 1015,7 hPa 0,0 l/m 0 min 0 min 0 W/m 16,1 km/h (3 Bft) 95,65 %
17.09.2022 21:36 13,0 C 12,2 C 8,3 C 76 % 1015,8 hPa 0,0 l/m 0 min 0 min 0 W/m 9,7 km/h (2 Bft) 97,87 %
17.09.2022 21:38 12,9 C 12,2 C 8,3 C 76 % 1015,7 hPa 0,0 l/m 0 min 0 min 0 W/m 19,3 km/h (3 Bft) 95,74 %
17.09.2022 21:40 12,9 C 12,2 C 8,9 C 76 % 1015,8 hPa 0,0 l/m 0 min 0 min 0 W/m 16,1 km/h (3 Bft) 95,74 %
17.09.2022 21:42 12,9 C 12,2 C 8,9 C 76 % 1015,8 hPa 0,0 l/m 0 min 0 min 0 W/m 12,9 km/h (3 Bft) 95,74 %
17.09.2022 21:44 12,9 C 12,2 C 8,3 C 76 % 1015,8 hPa 0,0 l/m 0 min 0 min 0 W/m 12,9 km/h (3 Bft) 95,74 %
17.09.2022 21:46 12,9 C 12,2 C 8,9 C 76 % 1015,8 hPa 0,0 l/m 0 min 0 min 0 W/m 12,9 km/h (3 Bft) 93,48 %
17.09.2022 21:48 12,9 C 12,2 C 8,9 C 76 % 1015,8 hPa 0,0 l/m 0 min 0 min 0 W/m 22,5 km/h (4 Bft) 95,74 %
17.09.2022 21:50 12,9 C 12,2 C 8,3 C 77 % 1015,9 hPa 0,0 l/m 0 min 0 min 0 W/m 12,9 km/h (3 Bft) 95,74 %
17.09.2022 21:52 12,8 C 12,2 C 8,3 C 77 % 1015,8 hPa 0,0 l/m 0 min 0 min 0 W/m 16,1 km/h (3 Bft) 93,62 %
17.09.2022 21:54 12,8 C 12,2 C 8,3 C 77 % 1015,9 hPa 0,0 l/m 0 min 0 min 0 W/m 19,3 km/h (3 Bft) 97,87 %
17.09.2022 21:56 12,8 C 12,2 C 8,3 C 77 % 1015,9 hPa 0,0 l/m 0 min 0 min 0 W/m 16,1 km/h (3 Bft) 93,62 %
17.09.2022 21:58 12,8 C 12,2 C 8,3 C 78 % 1015,9 hPa 0,0 l/m 0 min 0 min 0 W/m 22,5 km/h (4 Bft) 95,65 %
17.09.2022 22:00 12,8 C 12,2 C 8,3 C 78 % 1015,9 hPa 0,0 l/m 0 min 0 min 0 W/m 12,9 km/h (3 Bft) 95,74 %
17.09.2022 22:02 12,7 C 12,2 C 8,3 C 79 % 1016,0 hPa 0,0 l/m 0 min 0 min 0 W/m 25,7 km/h (4 Bft) 95,74 %
17.09.2022 22:04 12,7 C 11,7 C 8,3 C 79 % 1015,9 hPa 0,0 l/m 0 min 0 min 0 W/m 16,1 km/h (3 Bft) 93,62 %
17.09.2022 22:06 12,7 C 11,7 C 8,3 C 79 % 1015,9 hPa 0,0 l/m 0 min 0 min 0 W/m 16,1 km/h (3 Bft) 95,74 %
17.09.2022 22:08 12,7 C 11,7 C 8,3 C 80 % 1015,9 hPa 0,0 l/m 0 min 0 min 0 W/m 19,3 km/h (3 Bft) 95,65 %
17.09.2022 22:10 12,7 C 11,7 C 8,3 C 80 % 1015,9 hPa 0,0 l/m 0 min 0 min 0 W/m 12,9 km/h (3 Bft) 95,74 %
17.09.2022 22:12 12,6 C 11,7 C 8,3 C 80 % 1015,9 hPa 0,0 l/m 0 min 0 min 0 W/m 12,9 km/h (3 Bft) 95,74 %
17.09.2022 22:14 12,6 C 11,7 C 8,3 C 81 % 1015,9 hPa 0,0 l/m 0 min 0 min 0 W/m 19,3 km/h (3 Bft) 97,87 %
17.09.2022 22:16 12,6 C 11,7 C 8,3 C 81 % 1015,9 hPa 0,0 l/m 0 min 0 min 0 W/m 16,1 km/h (3 Bft) 93,62 %
17.09.2022 22:18 12,6 C 11,7 C 8,3 C 81 % 1015,9 hPa 0,0 l/m 0 min 0 min 0 W/m 16,1 km/h (3 Bft) 95,74 %
17.09.2022 22:20 12,6 C 11,7 C 8,3 C 81 % 1015,9 hPa 0,0 l/m 0 min 0 min 0 W/m 19,3 km/h (3 Bft) 55,56 %
17.09.2022 22:22 12,6 C 11,7 C 8,3 C 81 % 1015,9 hPa 0,0 l/m 0 min 0 min 0 W/m 19,3 km/h (3 Bft) 95,74 %
17.09.2022 22:24 12,6 C 11,7 C 8,3 C 81 % 1015,9 hPa 0,0 l/m 0 min 0 min 0 W/m 12,9 km/h (3 Bft) 97,87 %
17.09.2022 22:26 12,6 C 11,7 C 8,3 C 82 % 1015,9 hPa 0,0 l/m 0 min 0 min 0 W/m 16,1 km/h (3 Bft) 97,87 %
17.09.2022 22:28 12,6 C 11,7 C 8,3 C 82 % 1015,9 hPa 0,0 l/m 0 min 0 min 0 W/m 16,1 km/h (3 Bft) 100,00 %
17.09.2022 22:30 12,5 C 11,7 C 8,3 C 82 % 1015,9 hPa 0,0 l/m 0 min 0 min 0 W/m 12,9 km/h (3 Bft) 100,00 %
17.09.2022 22:32 12,5 C 11,7 C 8,3 C 82 % 1015,9 hPa 0,0 l/m 0 min 0 min 0 W/m 12,9 km/h (3 Bft) 100,00 %
17.09.2022 22:34 12,5 C 11,7 C 8,3 C 82 % 1015,9 hPa 0,0 l/m 0 min 0 min 0 W/m 16,1 km/h (3 Bft) 97,87 %
17.09.2022 22:36 12,5 C 11,7 C 8,3 C 82 % 1015,9 hPa 0,0 l/m 0 min 0 min 0 W/m 16,1 km/h (3 Bft) 100,00 %
17.09.2022 22:38 12,4 C 11,7 C 8,3 C 82 % 1015,9 hPa 0,0 l/m 0 min 0 min 0 W/m 12,9 km/h (3 Bft) 100,00 %
17.09.2022 22:40 12,4 C 11,7 C 8,3 C 82 % 1015,9 hPa 0,0 l/m 0 min 0 min 0 W/m 12,9 km/h (3 Bft) 100,00 %
17.09.2022 22:42 12,4 C 11,7 C 8,3 C 82 % 1015,9 hPa 0,0 l/m 0 min 0 min 0 W/m 12,9 km/h (3 Bft) 100,00 %
17.09.2022 22:44 12,4 C 11,7 C 8,3 C 83 % 1016,0 hPa 0,0 l/m 0 min 0 min 0 W/m 22,5 km/h (4 Bft) 95,65 %
17.09.2022 22:46 12,4 C 11,7 C 8,3 C 83 % 1015,9 hPa 0,0 l/m 0 min 0 min 0 W/m 12,9 km/h (3 Bft) 100,00 %
17.09.2022 22:48 12,4 C 11,7 C 8,3 C 83 % 1015,9 hPa 0,0 l/m 0 min 0 min 0 W/m 16,1 km/h (3 Bft) 97,87 %
17.09.2022 22:50 12,4 C 11,7 C 8,3 C 83 % 1015,9 hPa 0,0 l/m 0 min 0 min 0 W/m 16,1 km/h (3 Bft) 100,00 %
17.09.2022 22:52 12,4 C 11,7 C 8,3 C 83 % 1016,0 hPa 0,0 l/m 0 min 0 min 0 W/m 16,1 km/h (3 Bft) 100,00 %
17.09.2022 22:54 12,3 C 11,7 C 8,3 C 83 % 1015,9 hPa 0,0 l/m 0 min 0 min 0 W/m 16,1 km/h (3 Bft) 100,00 %
17.09.2022 22:56 12,3 C 11,7 C 8,3 C 83 % 1015,9 hPa 0,0 l/m 0 min 0 min 0 W/m 16,1 km/h (3 Bft) 97,83 %
17.09.2022 22:58 12,3 C 11,7 C 8,3 C 83 % 1016,0 hPa 0,0 l/m 0 min 0 min 0 W/m 12,9 km/h (3 Bft) 97,87 %
17.09.2022 23:00 12,3 C 11,7 C 8,3 C 83 % 1016,0 hPa 0,0 l/m 0 min 0 min 0 W/m 16,1 km/h (3 Bft) 95,74 %
17.09.2022 23:02 12,3 C 11,7 C 7,8 C 83 % 1016,0 hPa 0,0 l/m 0 min 0 min 0 W/m 16,1 km/h (3 Bft) 95,74 %
17.09.2022 23:04 12,3 C 11,7 C 7,8 C 83 % 1016,0 hPa 0,0 l/m 0 min 0 min 0 W/m 12,9 km/h (3 Bft) 97,87 %
17.09.2022 23:06 12,2 C 11,7 C 7,8 C 84 % 1016,0 hPa 0,0 l/m 0 min 0 min 0 W/m 12,9 km/h (3 Bft) 97,87 %
17.09.2022 23:08 12,2 C 11,1 C 7,8 C 84 % 1016,1 hPa 0,0 l/m 0 min 0 min 0 W/m 19,3 km/h (3 Bft) 95,65 %
17.09.2022 23:10 12,2 C 11,1 C 7,8 C 84 % 1016,0 hPa 0,0 l/m 0 min 0 min 0 W/m 9,7 km/h (2 Bft) 97,87 %
17.09.2022 23:12 12,1 C 11,1 C 7,8 C 84 % 1016,0 hPa 0,0 l/m 0 min 0 min 0 W/m 12,9 km/h (3 Bft) 97,87 %
17.09.2022 23:14 12,1 C 11,1 C 7,8 C 84 % 1016,0 hPa 0,0 l/m 0 min 0 min 0 W/m 9,7 km/h (2 Bft) 97,87 %
17.09.2022 23:16 12,1 C 11,1 C 7,8 C 84 % 1016,1 hPa 0,0 l/m 0 min 0 min 0 W/m 16,1 km/h (3 Bft) 97,87 %
17.09.2022 23:18 12,0 C 11,1 C 7,8 C 85 % 1016,0 hPa 0,0 l/m 0 min 0 min 0 W/m 12,9 km/h (3 Bft) 97,87 %
17.09.2022 23:20 11,9 C 11,1 C 7,8 C 85 % 1016,1 hPa 0,0 l/m 0 min 0 min 0 W/m 12,9 km/h (3 Bft) 97,83 %
17.09.2022 23:22 11,9 C 11,1 C 7,8 C 85 % 1016,0 hPa 0,0 l/m 0 min 0 min 0 W/m 16,1 km/h (3 Bft) 97,87 %
17.09.2022 23:24 11,9 C 11,1 C 7,8 C 85 % 1016,1 hPa 0,0 l/m 0 min 0 min 0 W/m 12,9 km/h (3 Bft) 97,87 %
17.09.2022 23:26 11,8 C 11,1 C 7,8 C 85 % 1016,0 hPa 0,0 l/m 0 min 0 min 0 W/m 12,9 km/h (3 Bft) 100,00 %
17.09.2022 23:28 11,8 C 11,1 C 7,8 C 86 % 1016,1 hPa 0,0 l/m 0 min 0 min 0 W/m 9,7 km/h (2 Bft) 100,00 %
17.09.2022 23:30 11,8 C 11,1 C 7,8 C 86 % 1016,1 hPa 0,0 l/m 0 min 0 min 0 W/m 12,9 km/h (3 Bft) 97,87 %
17.09.2022 23:32 11,7 C 11,1 C 7,8 C 86 % 1016,1 hPa 0,0 l/m 0 min 0 min 0 W/m 12,9 km/h (3 Bft) 100,00 %
17.09.2022 23:34 11,7 C 11,1 C 7,8 C 86 % 1016,2 hPa 0,0 l/m 0 min 0 min 0 W/m 12,9 km/h (3 Bft) 100,00 %
17.09.2022 23:36 11,7 C 10,6 C 7,8 C 86 % 1016,1 hPa 0,0 l/m 0 min 0 min 0 W/m 12,9 km/h (3 Bft) 100,00 %
17.09.2022 23:38 11,6 C 10,6 C 7,2 C 86 % 1016,1 hPa 0,0 l/m 0 min 0 min 0 W/m 19,3 km/h (3 Bft) 97,87 %
17.09.2022 23:40 11,6 C 10,6 C 7,2 C 86 % 1016,2 hPa 0,0 l/m 0 min 0 min 0 W/m 19,3 km/h (3 Bft) 100,00 %
17.09.2022 23:42 11,6 C 10,6 C 7,2 C 87 % 1016,2 hPa 0,0 l/m 0 min 0 min 0 W/m 16,1 km/h (3 Bft) 97,87 %
17.09.2022 23:44 11,6 C 10,6 C 7,2 C 87 % 1016,2 hPa 0,0 l/m 0 min 0 min 0 W/m 12,9 km/h (3 Bft) 100,00 %
17.09.2022 23:46 11,6 C 10,6 C 7,2 C 87 % 1016,2 hPa 0,0 l/m 0 min 0 min 0 W/m 12,9 km/h (3 Bft) 100,00 %
17.09.2022 23:48 11,5 C 10,6 C 7,2 C 87 % 1016,2 hPa 0,0 l/m 0 min 0 min 0 W/m 12,9 km/h (3 Bft) 100,00 %
17.09.2022 23:50 11,5 C 10,6 C 7,2 C 87 % 1016,2 hPa 0,0 l/m 0 min 0 min 0 W/m 16,1 km/h (3 Bft) 100,00 %
17.09.2022 23:52 11,4 C 10,6 C 7,2 C 88 % 1016,2 hPa 0,0 l/m 0 min 0 min 0 W/m 9,7 km/h (2 Bft) 100,00 %
17.09.2022 23:54 11,4 C 10,6 C 7,2 C 88 % 1016,2 hPa 0,0 l/m 0 min 0 min 0 W/m 9,7 km/h (2 Bft) 100,00 %
17.09.2022 23:56 11,4 C 10,6 C 7,2 C 88 % 1016,3 hPa 0,0 l/m 0 min 0 min 0 W/m 16,1 km/h (3 Bft) 100,00 %
17.09.2022 23:58 11,4 C 10,6 C 7,2 C 88 % 1016,2 hPa 0,0 l/m 0 min 0 min 0 W/m 9,7 km/h (2 Bft) 100,00 %
_ Min-Zeit 06:52 06:12 06:00 13:00 00:14 - - - - 19:24 22:20
Minimum _ 9,6 C 8,9 C 6,1 C 69 % 1012,9 hPa - - - - 0,0 km/h (0 Bft) 55,56 %
_ Max-Zeit 14:20 14:14 11:50 06:48 23:56 14:22 11:44 05:24 14:18 13:12 00:00
Maximum _ 15,7 C 22,2 C 11,7 C 95 % 1016,3 hPa 0,8 l/m 2 min 4 min 854 W/m 48,3 km/h
O (6 Bft)
100,00 %
Durchschnitt _ 12,1 C 11,9 C 8,1 C 84 % 1014,5 hPa #2,4 l/m #3:14 h #43 min. 217 W/m 14,4 km/h (3 Bft) 97,32 %
© 2022 W. Hausmann